Wetterdaten: aktuell Montag, 21.09.2020 20:06
Datum Zeit Temp. A. Feuchte A. Luftdruck Regen Sonnenschein Regendauer ET UV Solar Taupunkt Windchill Windben Empfang
21.09.2020 20:06 20,9 C 53 % 1012,8 hPa 0,0 l/m 0 min 0 min 0,000 mm 0,0 UV-I 0 W/m 11,0 C 20,9 C 0,0 km/h (0 Bft) 98 %
21.09.2020 20:04 20,9 C 52 % 1012,8 hPa 0,0 l/m 0 min 0 min 0,025 mm 0,0 UV-I 0 W/m 10,7 C 20,9 C 0,0 km/h (0 Bft) 98 %
21.09.2020 20:00 21,1 C 52 % 1012,7 hPa 0,0 l/m 0 min 0 min 0,000 mm 0,0 UV-I 0 W/m 10,9 C 21,1 C 0,0 km/h (0 Bft) 96 %
21.09.2020 19:58 21,2 C 52 % 1012,7 hPa 0,0 l/m 0 min 0 min 0,000 mm 0,0 UV-I 0 W/m 10,9 C 21,2 C 0,0 km/h (0 Bft) 96 %
21.09.2020 19:56 21,3 C 52 % 1012,7 hPa 0,0 l/m 0 min 0 min 0,000 mm 0,0 UV-I 0 W/m 11,0 C 21,3 C 0,0 km/h (0 Bft) 96 %
21.09.2020 19:54 21,3 C 52 % 1012,7 hPa 0,0 l/m 0 min 0 min 0,000 mm 0,0 UV-I 0 W/m 11,0 C 21,3 C 0,0 km/h (0 Bft) 98 %
21.09.2020 19:52 21,4 C 52 % 1012,7 hPa 0,0 l/m 0 min 0 min 0,000 mm 0,0 UV-I 0 W/m 11,1 C 21,4 C 0,0 km/h (0 Bft) 98 %
21.09.2020 19:50 21,6 C 52 % 1012,7 hPa 0,0 l/m 0 min 0 min 0,000 mm 0,0 UV-I 0 W/m 11,3 C 21,6 C 0,0 km/h (0 Bft) 98 %
21.09.2020 19:48 21,7 C 51 % 1012,7 hPa 0,0 l/m 0 min 0 min 0,000 mm 0,0 UV-I 0 W/m 11,1 C 21,7 C 0,0 km/h (0 Bft) 96 %
21.09.2020 19:46 21,8 C 51 % 1012,7 hPa 0,0 l/m 0 min 0 min 0,000 mm 0,0 UV-I 1 W/m 11,2 C 21,8 C 0,0 km/h (0 Bft) 96 %
21.09.2020 19:44 21,8 C 51 % 1012,7 hPa 0,0 l/m 0 min 0 min 0,000 mm 0,0 UV-I 2 W/m 11,2 C 21,8 C 0,0 km/h (0 Bft) 98 %
21.09.2020 19:42 21,9 C 51 % 1012,7 hPa 0,0 l/m 0 min 0 min 0,000 mm 0,0 UV-I 4 W/m 11,3 C 21,9 C 0,0 km/h (0 Bft) 96 %
21.09.2020 19:40 22,1 C 51 % 1012,7 hPa 0,0 l/m 0 min 0 min 0,000 mm 0,0 UV-I 6 W/m 11,5 C 22,1 C 0,0 km/h (0 Bft) 98 %
21.09.2020 19:38 22,2 C 51 % 1012,7 hPa 0,0 l/m 0 min 0 min 0,000 mm 0,0 UV-I 7 W/m 11,6 C 22,2 C 0,0 km/h (0 Bft) 98 %
21.09.2020 19:36 22,2 C 51 % 1012,7 hPa 0,0 l/m 0 min 0 min 0,000 mm 0,0 UV-I 8 W/m 11,6 C 22,2 C 0,0 km/h (0 Bft) 96 %
21.09.2020 19:34 22,3 C 51 % 1012,7 hPa 0,0 l/m 0 min 0 min 0,000 mm 0,0 UV-I 9 W/m 11,7 C 22,3 C 0,0 km/h (0 Bft) 98 %
21.09.2020 19:32 22,4 C 51 % 1012,7 hPa 0,0 l/m 0 min 0 min 0,000 mm 0,0 UV-I 11 W/m 11,8 C 22,4 C 0,0 km/h (0 Bft) 98 %
21.09.2020 19:30 22,5 C 51 % 1012,7 hPa 0,0 l/m 0 min 0 min 0,000 mm 0,0 UV-I 13 W/m 11,8 C 22,5 C 0,0 km/h (0 Bft) 100 %
21.09.2020 19:28 22,6 C 51 % 1012,7 hPa 0,0 l/m 0 min 0 min 0,000 mm 0,0 UV-I 14 W/m 11,9 C 22,6 C 0,0 km/h (0 Bft) 98 %
21.09.2020 19:26 22,7 C 50 % 1012,7 hPa 0,0 l/m 0 min 0 min 0,000 mm 0,0 UV-I 15 W/m 11,7 C 22,7 C 0,0 km/h (0 Bft) 98 %
21.09.2020 19:24 22,7 C 50 % 1012,7 hPa 0,0 l/m 0 min 0 min 0,000 mm 0,0 UV-I 16 W/m 11,7 C 22,7 C 1,6 km/h (1 Bft) 98 %
21.09.2020 19:22 22,8 C 50 % 1012,6 hPa 0,0 l/m 0 min 0 min 0,000 mm 0,0 UV-I 18 W/m 11,8 C 22,8 C 0,0 km/h (0 Bft) 98 %
21.09.2020 19:20 22,9 C 50 % 1012,6 hPa 0,0 l/m 0 min 0 min 0,000 mm 0,0 UV-I 20 W/m 11,9 C 22,9 C 0,0 km/h (0 Bft) 94 %
21.09.2020 19:18 23,0 C 50 % 1012,6 hPa 0,0 l/m 0 min 0 min 0,000 mm 0,0 UV-I 21 W/m 12,0 C 23,0 C 0,0 km/h (0 Bft) 96 %
21.09.2020 19:16 23,1 C 50 % 1012,6 hPa 0,0 l/m 0 min 0 min 0,000 mm 0,0 UV-I 23 W/m 12,1 C 23,1 C 0,0 km/h (0 Bft) 96 %
21.09.2020 19:14 23,2 C 50 % 1012,6 hPa 0,0 l/m 0 min 0 min 0,000 mm 0,0 UV-I 26 W/m 12,2 C 23,2 C 0,0 km/h (0 Bft) 98 %
21.09.2020 19:12 23,3 C 49 % 1012,6 hPa 0,0 l/m 0 min 0 min 0,000 mm 0,0 UV-I 27 W/m 12,0 C 23,3 C 0,0 km/h (0 Bft) 96 %
21.09.2020 19:10 23,3 C 49 % 1012,6 hPa 0,0 l/m 0 min 0 min 0,000 mm 0,0 UV-I 29 W/m 12,0 C 23,3 C 0,0 km/h (0 Bft) 96 %
21.09.2020 19:08 23,4 C 49 % 1012,6 hPa 0,0 l/m 0 min 0 min 0,000 mm 0,0 UV-I 32 W/m 12,1 C 23,4 C 0,0 km/h (0 Bft) 94 %
21.09.2020 19:06 23,6 C 49 % 1012,6 hPa 0,0 l/m 0 min 0 min 0,000 mm 0,0 UV-I 33 W/m 12,2 C 23,6 C 0,0 km/h (0 Bft) 94 %
21.09.2020 19:04 23,6 C 49 % 1012,6 hPa 0,0 l/m 0 min 0 min 0,076 mm 0,0 UV-I 35 W/m 12,2 C 23,6 C 0,0 km/h (0 Bft) 95 %
21.09.2020 19:00 23,8 C 48 % 1012,6 hPa 0,0 l/m 0 min 0 min 0,000 mm 0,0 UV-I 39 W/m 12,1 C 23,8 C 0,0 km/h (0 Bft) 93 %
21.09.2020 18:58 23,9 C 48 % 1012,7 hPa 0,0 l/m 0 min 0 min 0,000 mm 0,0 UV-I 41 W/m 12,2 C 23,9 C 0,0 km/h (0 Bft) 94 %
21.09.2020 18:56 24,0 C 48 % 1012,7 hPa 0,0 l/m 0 min 0 min 0,000 mm 0,0 UV-I 42 W/m 12,3 C 24,0 C 0,0 km/h (0 Bft) 96 %
21.09.2020 18:54 24,1 C 48 % 1012,7 hPa 0,0 l/m 0 min 0 min 0,000 mm 0,3 UV-I 43 W/m 12,4 C 24,1 C 0,0 km/h (0 Bft) 93 %
21.09.2020 18:52 24,2 C 48 % 1012,7 hPa 0,0 l/m 0 min 0 min 0,000 mm 0,6 UV-I 45 W/m 12,5 C 24,2 C 0,0 km/h (0 Bft) 96 %
21.09.2020 18:50 24,3 C 48 % 1012,7 hPa 0,0 l/m 0 min 0 min 0,000 mm 0,6 UV-I 47 W/m 12,6 C 24,3 C 0,0 km/h (0 Bft) 92 %
21.09.2020 18:48 24,3 C 48 % 1012,7 hPa 0,0 l/m 0 min 0 min 0,000 mm 0,6 UV-I 48 W/m 12,6 C 24,3 C 0,0 km/h (0 Bft) 96 %
21.09.2020 18:46 24,4 C 47 % 1012,7 hPa 0,0 l/m 0 min 0 min 0,000 mm 0,7 UV-I 50 W/m 12,3 C 24,4 C 0,0 km/h (0 Bft) 98 %
21.09.2020 18:44 24,5 C 47 % 1012,8 hPa 0,0 l/m 0 min 0 min 0,000 mm 0,7 UV-I 51 W/m 12,4 C 24,5 C 0,0 km/h (0 Bft) 98 %
21.09.2020 18:42 24,6 C 47 % 1012,7 hPa 0,0 l/m 0 min 0 min 0,000 mm 0,7 UV-I 53 W/m 12,5 C 24,6 C 0,0 km/h (0 Bft) 98 %
21.09.2020 18:40 24,6 C 47 % 1012,8 hPa 0,0 l/m 0 min 0 min 0,000 mm 0,7 UV-I 59 W/m 12,5 C 24,6 C 0,0 km/h (0 Bft) 98 %
21.09.2020 18:38 24,7 C 47 % 1012,7 hPa 0,0 l/m 0 min 0 min 0,000 mm 0,7 UV-I 73 W/m 12,6 C 24,7 C 0,0 km/h (0 Bft) 98 %
21.09.2020 18:36 24,8 C 46 % 1012,7 hPa 0,0 l/m 0 min 0 min 0,000 mm 0,7 UV-I 87 W/m 12,4 C 24,8 C 0,0 km/h (0 Bft) 96 %
21.09.2020 18:34 24,8 C 46 % 1012,7 hPa 0,0 l/m 2 min 0 min 0,000 mm 0,7 UV-I 93 W/m 12,4 C 24,8 C 0,0 km/h (0 Bft) 94 %
21.09.2020 18:32 24,9 C 46 % 1012,7 hPa 0,0 l/m 2 min 0 min 0,000 mm 0,7 UV-I 98 W/m 12,5 C 24,9 C 0,0 km/h (0 Bft) 98 %
21.09.2020 18:30 25,0 C 46 % 1012,8 hPa 0,0 l/m 2 min 0 min 0,000 mm 0,8 UV-I 103 W/m 12,6 C 25,0 C 0,0 km/h (0 Bft) 96 %
21.09.2020 18:28 25,1 C 46 % 1012,8 hPa 0,0 l/m 2 min 0 min 0,000 mm 0,8 UV-I 109 W/m 12,7 C 25,1 C 0,0 km/h (0 Bft) 98 %
21.09.2020 18:26 25,2 C 46 % 1012,8 hPa 0,0 l/m 2 min 0 min 0,000 mm 0,8 UV-I 113 W/m 12,7 C 25,2 C 0,0 km/h (0 Bft) 98 %
21.09.2020 18:24 25,2 C 46 % 1012,8 hPa 0,0 l/m 2 min 0 min 0,000 mm 0,8 UV-I 122 W/m 12,7 C 25,2 C 0,0 km/h (0 Bft) 97 %
21.09.2020 18:20 25,4 C 45 % 1012,8 hPa 0,0 l/m 2 min 0 min 0,000 mm 0,8 UV-I 129 W/m 12,6 C 25,4 C 0,0 km/h (0 Bft) 98 %
21.09.2020 18:18 25,5 C 45 % 1012,8 hPa 0,0 l/m 2 min 0 min 0,000 mm 0,8 UV-I 135 W/m 12,7 C 25,5 C 0,0 km/h (0 Bft) 98 %
21.09.2020 18:16 25,6 C 45 % 1012,8 hPa 0,0 l/m 2 min 0 min 0,000 mm 0,9 UV-I 142 W/m 12,8 C 25,6 C 0,0 km/h (0 Bft) 91 %
21.09.2020 18:14 25,6 C 45 % 1012,8 hPa 0,0 l/m 2 min 0 min 0,000 mm 0,9 UV-I 146 W/m 12,8 C 25,6 C 0,0 km/h (0 Bft) 98 %
21.09.2020 18:12 25,7 C 44 % 1012,8 hPa 0,0 l/m 2 min 0 min 0,000 mm 0,9 UV-I 151 W/m 12,5 C 25,7 C 0,0 km/h (0 Bft) 96 %
21.09.2020 18:10 25,8 C 44 % 1012,8 hPa 0,0 l/m 2 min 0 min 0,000 mm 0,9 UV-I 157 W/m 12,6 C 25,8 C 0,0 km/h (0 Bft) 94 %
21.09.2020 18:08 25,9 C 44 % 1012,8 hPa 0,0 l/m 2 min 0 min 0,000 mm 0,9 UV-I 163 W/m 12,7 C 25,9 C 0,0 km/h (0 Bft) 98 %
21.09.2020 18:06 25,9 C 43 % 1012,8 hPa 0,0 l/m 2 min 0 min 0,000 mm 0,9 UV-I 170 W/m 12,3 C 25,9 C 0,0 km/h (0 Bft) 98 %
21.09.2020 18:04 26,1 C 43 % 1012,8 hPa 0,0 l/m 2 min 0 min 0,178 mm 1,0 UV-I 178 W/m 12,5 C 26,1 C 1,6 km/h (1 Bft) 95 %
21.09.2020 18:00 26,3 C 43 % 1012,8 hPa 0,0 l/m 2 min 0 min 0,000 mm 1,0 UV-I 187 W/m 12,7 C 26,3 C 0,0 km/h (0 Bft) 98 %
21.09.2020 17:58 26,4 C 43 % 1012,8 hPa 0,0 l/m 2 min 0 min 0,000 mm 1,0 UV-I 192 W/m 12,8 C 26,4 C 0,0 km/h (0 Bft) 96 %
21.09.2020 17:56 26,6 C 43 % 1012,8 hPa 0,0 l/m 2 min 0 min 0,000 mm 1,0 UV-I 199 W/m 13,0 C 26,6 C 0,0 km/h (0 Bft) 94 %
21.09.2020 17:54 26,7 C 42 % 1012,8 hPa 0,0 l/m 2 min 0 min 0,000 mm 1,1 UV-I 205 W/m 12,7 C 26,7 C 0,0 km/h (0 Bft) 98 %
21.09.2020 17:52 26,7 C 42 % 1012,8 hPa 0,0 l/m 2 min 0 min 0,000 mm 1,1 UV-I 211 W/m 12,7 C 26,7 C 0,0 km/h (0 Bft) 98 %
21.09.2020 17:50 26,8 C 42 % 1012,8 hPa 0,0 l/m 2 min 0 min 0,000 mm 1,1 UV-I 216 W/m 12,8 C 26,8 C 0,0 km/h (0 Bft) 98 %
21.09.2020 17:48 26,9 C 42 % 1012,8 hPa 0,0 l/m 2 min 0 min 0,000 mm 1,1 UV-I 220 W/m 12,9 C 26,9 C 1,6 km/h (1 Bft) 98 %
21.09.2020 17:46 27,0 C 42 % 1012,8 hPa 0,0 l/m 2 min 0 min 0,000 mm 1,1 UV-I 226 W/m 13,0 C 27,0 C 0,0 km/h (0 Bft) 94 %
21.09.2020 17:44 27,1 C 42 % 1012,8 hPa 0,0 l/m 2 min 0 min 0,000 mm 1,2 UV-I 231 W/m 13,1 C 27,1 C 0,0 km/h (0 Bft) 94 %
21.09.2020 17:42 27,1 C 43 % 1012,8 hPa 0,0 l/m 2 min 0 min 0,000 mm 1,2 UV-I 236 W/m 13,4 C 27,1 C 0,0 km/h (0 Bft) 94 %
21.09.2020 17:40 27,2 C 42 % 1012,8 hPa 0,0 l/m 2 min 0 min 0,000 mm 1,2 UV-I 240 W/m 13,2 C 27,2 C 0,0 km/h (0 Bft) 94 %
21.09.2020 17:38 27,2 C 42 % 1012,8 hPa 0,0 l/m 2 min 0 min 0,000 mm 1,2 UV-I 245 W/m 13,2 C 27,2 C 4,8 km/h (1 Bft) 96 %
21.09.2020 17:36 27,3 C 42 % 1012,8 hPa 0,0 l/m 2 min 0 min 0,000 mm 1,3 UV-I 250 W/m 13,2 C 27,3 C 0,0 km/h (0 Bft) 94 %
21.09.2020 17:34 27,3 C 41 % 1012,8 hPa 0,0 l/m 2 min 0 min 0,000 mm 1,3 UV-I 255 W/m 12,9 C 27,3 C 0,0 km/h (0 Bft) 94 %
21.09.2020 17:32 27,3 C 42 % 1012,8 hPa 0,0 l/m 2 min 0 min 0,000 mm 1,3 UV-I 259 W/m 13,2 C 27,3 C 8,0 km/h (2 Bft) 98 %
21.09.2020 17:30 27,3 C 42 % 1012,9 hPa 0,0 l/m 2 min 0 min 0,000 mm 1,3 UV-I 265 W/m 13,2 C 27,3 C 8,0 km/h (2 Bft) 98 %
21.09.2020 17:28 27,3 C 42 % 1012,9 hPa 0,0 l/m 2 min 0 min 0,000 mm 1,3 UV-I 269 W/m 13,2 C 27,3 C 0,0 km/h (0 Bft) 98 %
21.09.2020 17:26 27,3 C 42 % 1012,9 hPa 0,0 l/m 2 min 0 min 0,000 mm 1,4 UV-I 274 W/m 13,2 C 27,3 C 0,0 km/h (0 Bft) 89 %
21.09.2020 17:24 27,3 C 42 % 1012,9 hPa 0,0 l/m 2 min 0 min 0,000 mm 1,4 UV-I 280 W/m 13,2 C 27,3 C 0,0 km/h (0 Bft) 98 %
21.09.2020 17:22 27,3 C 41 % 1012,9 hPa 0,0 l/m 2 min 0 min 0,000 mm 1,4 UV-I 284 W/m 12,9 C 27,3 C 0,0 km/h (0 Bft) 100 %
21.09.2020 17:20 27,4 C 41 % 1012,9 hPa 0,0 l/m 2 min 0 min 0,000 mm 1,5 UV-I 291 W/m 13,0 C 27,4 C 3,2 km/h (1 Bft) 100 %
21.09.2020 17:18 27,4 C 42 % 1012,9 hPa 0,0 l/m 2 min 0 min 0,000 mm 1,5 UV-I 296 W/m 13,3 C 27,4 C 6,4 km/h (2 Bft) 98 %
21.09.2020 17:16 27,4 C 41 % 1012,9 hPa 0,0 l/m 2 min 0 min 0,000 mm 1,5 UV-I 301 W/m 13,0 C 27,4 C 1,6 km/h (1 Bft) 98 %
21.09.2020 17:14 27,3 C 42 % 1013,0 hPa 0,0 l/m 2 min 0 min 0,000 mm 1,6 UV-I 307 W/m 13,2 C 27,3 C 4,8 km/h (1 Bft) 100 %
21.09.2020 17:12 27,3 C 42 % 1012,9 hPa 0,0 l/m 2 min 0 min 0,000 mm 1,6 UV-I 312 W/m 13,2 C 27,3 C 0,0 km/h (0 Bft) 100 %
21.09.2020 17:10 27,3 C 41 % 1013,0 hPa 0,0 l/m 2 min 0 min 0,000 mm 1,6 UV-I 317 W/m 12,9 C 27,3 C 1,6 km/h (1 Bft) 98 %
21.09.2020 17:08 27,3 C 42 % 1012,9 hPa 0,0 l/m 2 min 0 min 0,000 mm 1,6 UV-I 321 W/m 13,2 C 27,3 C 6,4 km/h (2 Bft) 98 %
21.09.2020 17:06 27,4 C 42 % 1012,9 hPa 0,0 l/m 2 min 0 min 0,000 mm 1,7 UV-I 325 W/m 13,3 C 27,4 C 0,0 km/h (0 Bft) 98 %
21.09.2020 17:04 27,4 C 42 % 1013,0 hPa 0,0 l/m 2 min 0 min 0,279 mm 1,7 UV-I 332 W/m 13,3 C 27,4 C 3,2 km/h (1 Bft) 100 %
21.09.2020 17:00 27,4 C 42 % 1013,0 hPa 0,0 l/m 2 min 0 min 0,000 mm 1,8 UV-I 340 W/m 13,3 C 27,4 C 0,0 km/h (0 Bft) 100 %
21.09.2020 16:58 27,4 C 43 % 1012,9 hPa 0,0 l/m 2 min 0 min 0,000 mm 1,8 UV-I 345 W/m 13,7 C 27,4 C 0,0 km/h (0 Bft) 100 %
21.09.2020 16:56 27,4 C 42 % 1013,0 hPa 0,0 l/m 2 min 0 min 0,000 mm 1,8 UV-I 349 W/m 13,3 C 27,4 C 0,0 km/h (0 Bft) 100 %
21.09.2020 16:54 27,4 C 42 % 1013,0 hPa 0,0 l/m 2 min 0 min 0,000 mm 1,9 UV-I 354 W/m 13,3 C 27,4 C 0,0 km/h (0 Bft) 100 %
21.09.2020 16:52 27,3 C 42 % 1013,0 hPa 0,0 l/m 2 min 0 min 0,000 mm 1,9 UV-I 357 W/m 13,2 C 27,3 C 0,0 km/h (0 Bft) 100 %
21.09.2020 16:50 27,3 C 42 % 1013,0 hPa 0,0 l/m 2 min 0 min 0,000 mm 1,9 UV-I 362 W/m 13,2 C 27,3 C 0,0 km/h (0 Bft) 98 %
21.09.2020 16:48 27,3 C 42 % 1013,0 hPa 0,0 l/m 2 min 0 min 0,000 mm 2,0 UV-I 368 W/m 13,2 C 27,3 C 0,0 km/h (0 Bft) 96 %
21.09.2020 16:46 27,3 C 42 % 1013,0 hPa 0,0 l/m 2 min 0 min 0,000 mm 2,0 UV-I 373 W/m 13,2 C 27,3 C 0,0 km/h (0 Bft) 100 %
21.09.2020 16:44 27,3 C 42 % 1013,0 hPa 0,0 l/m 2 min 0 min 0,000 mm 2,0 UV-I 377 W/m 13,2 C 27,3 C 0,0 km/h (0 Bft) 100 %
21.09.2020 16:42 27,3 C 43 % 1013,0 hPa 0,0 l/m 2 min 0 min 0,000 mm 2,1 UV-I 381 W/m 13,6 C 27,3 C 0,0 km/h (0 Bft) 100 %
21.09.2020 16:40 27,3 C 42 % 1013,0 hPa 0,0 l/m 2 min 0 min 0,000 mm 2,1 UV-I 386 W/m 13,2 C 27,3 C 0,0 km/h (0 Bft) 98 %
21.09.2020 16:38 27,2 C 42 % 1013,0 hPa 0,0 l/m 2 min 0 min 0,000 mm 2,1 UV-I 390 W/m 13,2 C 27,2 C 0,0 km/h (0 Bft) 100 %
21.09.2020 16:36 27,2 C 41 % 1013,1 hPa 0,0 l/m 2 min 0 min 0,000 mm 2,2 UV-I 396 W/m 12,8 C 27,2 C 0,0 km/h (0 Bft) 98 %
21.09.2020 16:34 27,2 C 42 % 1013,1 hPa 0,0 l/m 2 min 0 min 0,000 mm 2,2 UV-I 402 W/m 13,2 C 27,2 C 0,0 km/h (0 Bft) 100 %
21.09.2020 16:32 27,3 C 42 % 1013,1 hPa 0,0 l/m 2 min 0 min 0,000 mm 2,2 UV-I 406 W/m 13,2 C 27,3 C 0,0 km/h (0 Bft) 96 %
21.09.2020 16:30 27,4 C 41 % 1013,1 hPa 0,0 l/m 2 min 0 min 0,000 mm 2,3 UV-I 409 W/m 13,0 C 27,4 C 0,0 km/h (0 Bft) 98 %
21.09.2020 16:28 27,4 C 41 % 1013,1 hPa 0,0 l/m 2 min 0 min 0,000 mm 2,3 UV-I 414 W/m 13,0 C 27,4 C 0,0 km/h (0 Bft) 100 %
21.09.2020 16:26 27,4 C 41 % 1013,1 hPa 0,0 l/m 2 min 0 min 0,000 mm 2,3 UV-I 418 W/m 13,0 C 27,4 C 0,0 km/h (0 Bft) 100 %
21.09.2020 16:24 27,4 C 42 % 1013,1 hPa 0,0 l/m 2 min 0 min 0,000 mm 2,4 UV-I 422 W/m 13,3 C 27,4 C 0,0 km/h (0 Bft) 96 %
21.09.2020 16:22 27,4 C 41 % 1013,1 hPa 0,0 l/m 2 min 0 min 0,000 mm 2,4 UV-I 427 W/m 13,0 C 27,4 C 0,0 km/h (0 Bft) 96 %
21.09.2020 16:20 27,4 C 42 % 1013,1 hPa 0,0 l/m 2 min 0 min 0,000 mm 2,4 UV-I 430 W/m 13,3 C 27,4 C 0,0 km/h (0 Bft) 96 %
21.09.2020 16:18 27,4 C 42 % 1013,1 hPa 0,0 l/m 2 min 0 min 0,000 mm 2,5 UV-I 433 W/m 13,3 C 27,4 C 0,0 km/h (0 Bft) 96 %
21.09.2020 16:16 27,4 C 42 % 1013,1 hPa 0,0 l/m 2 min 0 min 0,000 mm 2,5 UV-I 438 W/m 13,3 C 27,4 C 0,0 km/h (0 Bft) 98 %
21.09.2020 16:14 27,5 C 42 % 1013,1 hPa 0,0 l/m 2 min 0 min 0,000 mm 2,5 UV-I 441 W/m 13,4 C 27,5 C 0,0 km/h (0 Bft) 96 %
21.09.2020 16:12 27,5 C 42 % 1013,1 hPa 0,0 l/m 2 min 0 min 0,000 mm 2,6 UV-I 444 W/m 13,4 C 27,5 C 0,0 km/h (0 Bft) 98 %
21.09.2020 16:10 27,4 C 42 % 1013,1 hPa 0,0 l/m 2 min 0 min 0,000 mm 2,6 UV-I 449 W/m 13,3 C 27,4 C 3,2 km/h (1 Bft) 91 %
21.09.2020 16:08 27,5 C 41 % 1013,1 hPa 0,0 l/m 2 min 0 min 0,000 mm 2,7 UV-I 454 W/m 13,1 C 27,5 C 1,6 km/h (1 Bft) 96 %
21.09.2020 16:06 27,4 C 42 % 1013,2 hPa 0,0 l/m 2 min 0 min 0,000 mm 2,7 UV-I 457 W/m 13,3 C 27,4 C 0,0 km/h (0 Bft) 96 %
21.09.2020 16:04 27,4 C 42 % 1013,2 hPa 0,0 l/m 2 min 0 min 0,356 mm 2,7 UV-I 463 W/m 13,3 C 27,4 C 4,8 km/h (1 Bft) 92 %
21.09.2020 16:00 27,3 C 42 % 1013,2 hPa 0,0 l/m 2 min 0 min 0,000 mm 2,8 UV-I 469 W/m 13,2 C 27,3 C 4,8 km/h (1 Bft) 96 %
21.09.2020 15:58 27,4 C 42 % 1013,2 hPa 0,0 l/m 2 min 0 min 0,000 mm 2,8 UV-I 473 W/m 13,3 C 27,4 C 0,0 km/h (0 Bft) 98 %
21.09.2020 15:56 27,3 C 43 % 1013,2 hPa 0,0 l/m 2 min 0 min 0,000 mm 2,9 UV-I 479 W/m 13,6 C 27,3 C 1,6 km/h (1 Bft) 94 %
21.09.2020 15:54 27,3 C 42 % 1013,1 hPa 0,0 l/m 2 min 0 min 0,000 mm 2,9 UV-I 481 W/m 13,2 C 27,3 C 8,0 km/h (2 Bft) 98 %
21.09.2020 15:52 27,3 C 42 % 1013,1 hPa 0,0 l/m 2 min 0 min 0,000 mm 3,0 UV-I 486 W/m 13,2 C 27,3 C 9,7 km/h (2 Bft) 98 %
21.09.2020 15:50 27,3 C 42 % 1013,1 hPa 0,0 l/m 2 min 0 min 0,000 mm 3,0 UV-I 492 W/m 13,2 C 27,3 C 9,7 km/h (2 Bft) 98 %
21.09.2020 15:48 27,3 C 42 % 1013,2 hPa 0,0 l/m 2 min 0 min 0,000 mm 3,0 UV-I 496 W/m 13,2 C 27,3 C 8,0 km/h (2 Bft) 96 %
21.09.2020 15:46 27,4 C 42 % 1013,2 hPa 0,0 l/m 2 min 0 min 0,000 mm 3,1 UV-I 499 W/m 13,3 C 27,4 C 0,0 km/h (0 Bft) 98 %
21.09.2020 15:44 27,3 C 43 % 1013,2 hPa 0,0 l/m 2 min 0 min 0,000 mm 3,1 UV-I 502 W/m 13,6 C 27,3 C 6,4 km/h (2 Bft) 98 %
21.09.2020 15:42 27,3 C 43 % 1013,3 hPa 0,0 l/m 2 min 0 min 0,000 mm 3,1 UV-I 507 W/m 13,6 C 27,3 C 8,0 km/h (2 Bft) 98 %
21.09.2020 15:40 27,3 C 43 % 1013,3 hPa 0,0 l/m 2 min 0 min 0,000 mm 3,2 UV-I 509 W/m 13,6 C 27,3 C 11,3 km/h (2 Bft) 98 %
21.09.2020 15:38 27,2 C 43 % 1013,3 hPa 0,0 l/m 2 min 0 min 0,000 mm 3,2 UV-I 513 W/m 13,5 C 27,2 C 8,0 km/h (2 Bft) 98 %
21.09.2020 15:36 27,2 C 44 % 1013,3 hPa 0,0 l/m 2 min 0 min 0,000 mm 3,2 UV-I 516 W/m 13,9 C 27,2 C 0,0 km/h (0 Bft) 96 %
21.09.2020 15:34 27,1 C 43 % 1013,3 hPa 0,0 l/m 2 min 0 min 0,000 mm 3,3 UV-I 517 W/m 13,4 C 27,1 C 1,6 km/h (1 Bft) 100 %
21.09.2020 15:32 27,1 C 43 % 1013,4 hPa 0,0 l/m 2 min 0 min 0,000 mm 3,3 UV-I 521 W/m 13,4 C 27,1 C 0,0 km/h (0 Bft) 100 %
21.09.2020 15:30 27,1 C 43 % 1013,4 hPa 0,0 l/m 2 min 0 min 0,000 mm 3,4 UV-I 524 W/m 13,4 C 27,1 C 0,0 km/h (0 Bft) 98 %
21.09.2020 15:28 27,1 C 45 % 1013,4 hPa 0,0 l/m 2 min 0 min 0,000 mm 3,4 UV-I 526 W/m 14,1 C 27,1 C 0,0 km/h (0 Bft) 100 %
21.09.2020 15:26 27,2 C 43 % 1013,5 hPa 0,0 l/m 2 min 0 min 0,000 mm 3,4 UV-I 530 W/m 13,5 C 27,2 C 0,0 km/h (0 Bft) 100 %
21.09.2020 15:24 27,1 C 44 % 1013,4 hPa 0,0 l/m 2 min 0 min 0,000 mm 3,5 UV-I 535 W/m 13,8 C 27,1 C 0,0 km/h (0 Bft) 100 %
21.09.2020 15:22 27,1 C 43 % 1013,4 hPa 0,0 l/m 2 min 0 min 0,000 mm 3,5 UV-I 538 W/m 13,4 C 27,1 C 0,0 km/h (0 Bft) 98 %
21.09.2020 15:20 27,1 C 44 % 1013,4 hPa 0,0 l/m 2 min 0 min 0,000 mm 3,5 UV-I 540 W/m 13,8 C 27,1 C 0,0 km/h (0 Bft) 100 %
21.09.2020 15:18 27,1 C 43 % 1013,4 hPa 0,0 l/m 2 min 0 min 0,000 mm 3,6 UV-I 543 W/m 13,4 C 27,1 C 0,0 km/h (0 Bft) 98 %
21.09.2020 15:16 27,1 C 44 % 1013,4 hPa 0,0 l/m 2 min 0 min 0,000 mm 3,6 UV-I 545 W/m 13,8 C 27,1 C 3,2 km/h (1 Bft) 98 %
21.09.2020 15:14 26,9 C 44 % 1013,5 hPa 0,0 l/m 2 min 0 min 0,000 mm 3,6 UV-I 548 W/m 13,6 C 26,9 C 1,6 km/h (1 Bft) 98 %
21.09.2020 15:12 26,9 C 44 % 1013,4 hPa 0,0 l/m 2 min 0 min 0,000 mm 3,7 UV-I 551 W/m 13,6 C 26,9 C 6,4 km/h (2 Bft) 98 %
21.09.2020 15:10 26,7 C 45 % 1013,4 hPa 0,0 l/m 2 min 0 min 0,000 mm 3,7 UV-I 552 W/m 13,8 C 26,7 C 1,6 km/h (1 Bft) 96 %
21.09.2020 15:08 26,6 C 45 % 1013,5 hPa 0,0 l/m 2 min 0 min 0,000 mm 3,7 UV-I 554 W/m 13,7 C 26,6 C 0,0 km/h (0 Bft) 98 %
21.09.2020 15:06 26,4 C 44 % 1013,4 hPa 0,0 l/m 2 min 0 min 0,000 mm 3,8 UV-I 557 W/m 13,1 C 26,4 C 0,0 km/h (0 Bft) 98 %
21.09.2020 15:04 26,3 C 46 % 1013,5 hPa 0,0 l/m 2 min 0 min 0,381 mm 3,8 UV-I 561 W/m 13,7 C 26,3 C 3,2 km/h (1 Bft) 98 %
21.09.2020 15:00 26,4 C 45 % 1013,6 hPa 0,0 l/m 2 min 0 min 0,000 mm 3,8 UV-I 566 W/m 13,5 C 26,4 C 9,7 km/h (2 Bft) 94 %
21.09.2020 14:58 26,3 C 45 % 1013,6 hPa 0,0 l/m 2 min 0 min 0,000 mm 3,9 UV-I 569 W/m 13,4 C 26,3 C 0,0 km/h (0 Bft) 96 %
21.09.2020 14:56 26,2 C 46 % 1013,6 hPa 0,0 l/m 2 min 0 min 0,000 mm 3,9 UV-I 572 W/m 13,6 C 26,2 C 6,4 km/h (2 Bft) 94 %
21.09.2020 14:54 26,1 C 46 % 1013,6 hPa 0,0 l/m 2 min 0 min 0,000 mm 3,9 UV-I 574 W/m 13,6 C 26,1 C 1,6 km/h (1 Bft) 96 %
21.09.2020 14:52 25,9 C 46 % 1013,6 hPa 0,0 l/m 2 min 0 min 0,000 mm 4,0 UV-I 578 W/m 13,4 C 25,9 C 0,0 km/h (0 Bft) 91 %
21.09.2020 14:50 25,8 C 45 % 1013,6 hPa 0,0 l/m 2 min 0 min 0,000 mm 4,0 UV-I 579 W/m 13,0 C 25,8 C 0,0 km/h (0 Bft) 94 %
21.09.2020 14:48 25,8 C 46 % 1013,6 hPa 0,0 l/m 2 min 0 min 0,000 mm 4,0 UV-I 583 W/m 13,3 C 25,8 C 4,8 km/h (1 Bft) 94 %
21.09.2020 14:46 25,7 C 46 % 1013,5 hPa 0,0 l/m 2 min 0 min 0,000 mm 4,0 UV-I 584 W/m 13,2 C 25,7 C 0,0 km/h (0 Bft) 96 %
21.09.2020 14:44 25,8 C 45 % 1013,6 hPa 0,0 l/m 2 min 0 min 0,000 mm 4,1 UV-I 588 W/m 13,0 C 25,8 C 0,0 km/h (0 Bft) 94 %
21.09.2020 14:42 25,9 C 45 % 1013,6 hPa 0,0 l/m 2 min 0 min 0,000 mm 4,1 UV-I 590 W/m 13,0 C 25,9 C 3,2 km/h (1 Bft) 96 %
21.09.2020 14:40 25,9 C 45 % 1013,6 hPa 0,0 l/m 2 min 0 min 0,000 mm 4,1 UV-I 591 W/m 13,0 C 25,9 C 1,6 km/h (1 Bft) 93 %
21.09.2020 14:38 25,9 C 46 % 1013,6 hPa 0,0 l/m 2 min 0 min 0,000 mm 4,1 UV-I 591 W/m 13,4 C 25,9 C 0,0 km/h (0 Bft) 91 %
21.09.2020 14:36 26,0 C 45 % 1013,6 hPa 0,0 l/m 2 min 0 min 0,000 mm 4,2 UV-I 592 W/m 13,1 C 26,0 C 0,0 km/h (0 Bft) 96 %
21.09.2020 14:34 26,0 C 44 % 1013,7 hPa 0,0 l/m 2 min 0 min 0,000 mm 4,2 UV-I 593 W/m 12,8 C 26,0 C 6,4 km/h (2 Bft) 98 %
21.09.2020 14:32 25,9 C 44 % 1013,7 hPa 0,0 l/m 2 min 0 min 0,000 mm 4,2 UV-I 596 W/m 12,7 C 25,9 C 3,2 km/h (1 Bft) 98 %
21.09.2020 14:30 25,9 C 45 % 1013,7 hPa 0,0 l/m 2 min 0 min 0,000 mm 4,2 UV-I 599 W/m 13,0 C 25,9 C 6,4 km/h (2 Bft) 96 %
21.09.2020 14:28 25,9 C 46 % 1013,7 hPa 0,0 l/m 2 min 0 min 0,000 mm 4,3 UV-I 603 W/m 13,4 C 25,9 C 6,4 km/h (2 Bft) 96 %
21.09.2020 14:26 25,8 C 46 % 1013,8 hPa 0,0 l/m 2 min 0 min 0,000 mm 4,3 UV-I 606 W/m 13,3 C 25,8 C 0,0 km/h (0 Bft) 96 %
21.09.2020 14:24 25,7 C 46 % 1013,9 hPa 0,0 l/m 2 min 0 min 0,000 mm 4,3 UV-I 609 W/m 13,2 C 25,7 C 0,0 km/h (0 Bft) 98 %
21.09.2020 14:22 25,7 C 46 % 1013,8 hPa 0,0 l/m 2 min 0 min 0,000 mm 4,3 UV-I 610 W/m 13,2 C 25,7 C 0,0 km/h (0 Bft) 98 %
21.09.2020 14:20 25,7 C 46 % 1013,9 hPa 0,0 l/m 2 min 0 min 0,000 mm 4,4 UV-I 611 W/m 13,2 C 25,7 C 0,0 km/h (0 Bft) 98 %
21.09.2020 14:18 25,6 C 47 % 1013,9 hPa 0,0 l/m 2 min 0 min 0,000 mm 4,4 UV-I 612 W/m 13,4 C 25,6 C 3,2 km/h (1 Bft) 93 %
21.09.2020 14:16 25,6 C 47 % 1014,0 hPa 0,0 l/m 2 min 0 min 0,000 mm 4,4 UV-I 615 W/m 13,4 C 25,6 C 4,8 km/h (1 Bft) 98 %
21.09.2020 14:14 25,6 C 48 % 1014,0 hPa 0,0 l/m 2 min 0 min 0,000 mm 4,4 UV-I 615 W/m 13,8 C 25,6 C 0,0 km/h (0 Bft) 96 %
21.09.2020 14:12 25,4 C 48 % 1014,0 hPa 0,0 l/m 2 min 0 min 0,000 mm 4,4 UV-I 614 W/m 13,6 C 25,4 C 3,2 km/h (1 Bft) 91 %
21.09.2020 14:10 25,3 C 48 % 1014,0 hPa 0,0 l/m 2 min 0 min 0,000 mm 4,4 UV-I 614 W/m 13,5 C 25,3 C 0,0 km/h (0 Bft) 96 %
21.09.2020 14:08 25,3 C 48 % 1014,0 hPa 0,0 l/m 2 min 0 min 0,000 mm 4,5 UV-I 615 W/m 13,5 C 25,3 C 0,0 km/h (0 Bft) 96 %
21.09.2020 14:06 25,2 C 48 % 1014,1 hPa 0,0 l/m 2 min 0 min 0,000 mm 4,5 UV-I 617 W/m 13,4 C 25,2 C 6,4 km/h (2 Bft) 98 %
21.09.2020 14:04 25,2 C 48 % 1014,1 hPa 0,0 l/m 2 min 0 min 0,406 mm 4,5 UV-I 620 W/m 13,4 C 25,2 C 4,8 km/h (1 Bft) 96 %
21.09.2020 14:00 25,2 C 47 % 1014,1 hPa 0,0 l/m 2 min 0 min 0,000 mm 4,5 UV-I 622 W/m 13,1 C 25,2 C 3,2 km/h (1 Bft) 94 %
21.09.2020 13:58 25,3 C 48 % 1014,1 hPa 0,0 l/m 2 min 0 min 0,000 mm 4,6 UV-I 624 W/m 13,5 C 25,3 C 6,4 km/h (2 Bft) 98 %
21.09.2020 13:56 25,2 C 47 % 1014,1 hPa 0,0 l/m 2 min 0 min 0,000 mm 4,6 UV-I 625 W/m 13,1 C 25,2 C 12,9 km/h (3 Bft) 96 %
21.09.2020 13:54 25,2 C 48 % 1014,1 hPa 0,0 l/m 2 min 0 min 0,000 mm 4,6 UV-I 623 W/m 13,4 C 25,2 C 0,0 km/h (0 Bft) 98 %
21.09.2020 13:52 25,1 C 49 % 1014,1 hPa 0,0 l/m 2 min 0 min 0,000 mm 4,6 UV-I 623 W/m 13,6 C 25,1 C 1,6 km/h (1 Bft) 96 %
21.09.2020 13:50 25,0 C 48 % 1014,1 hPa 0,0 l/m 2 min 0 min 0,000 mm 4,6 UV-I 624 W/m 13,2 C 25,0 C 16,1 km/h (3 Bft) 98 %
21.09.2020 13:48 24,8 C 48 % 1014,1 hPa 0,0 l/m 2 min 0 min 0,000 mm 4,6 UV-I 626 W/m 13,0 C 24,8 C 16,1 km/h (3 Bft) 98 %
21.09.2020 13:46 24,7 C 49 % 1014,1 hPa 0,0 l/m 2 min 0 min 0,000 mm 4,6 UV-I 627 W/m 13,3 C 24,7 C 0,0 km/h (0 Bft) 94 %
21.09.2020 13:44 24,6 C 50 % 1014,1 hPa 0,0 l/m 2 min 0 min 0,000 mm 4,6 UV-I 627 W/m 13,5 C 24,6 C 1,6 km/h (1 Bft) 96 %
21.09.2020 13:42 24,4 C 49 % 1014,1 hPa 0,0 l/m 2 min 0 min 0,000 mm 4,6 UV-I 627 W/m 13,0 C 24,4 C 0,0 km/h (0 Bft) 100 %
21.09.2020 13:40 24,5 C 48 % 1014,1 hPa 0,0 l/m 2 min 0 min 0,000 mm 4,6 UV-I 628 W/m 12,8 C 24,5 C 0,0 km/h (0 Bft) 96 %
21.09.2020 13:38 24,6 C 49 % 1014,1 hPa 0,0 l/m 2 min 0 min 0,000 mm 4,6 UV-I 628 W/m 13,2 C 24,6 C 0,0 km/h (0 Bft) 96 %
21.09.2020 13:36 24,6 C 49 % 1014,2 hPa 0,0 l/m 2 min 0 min 0,000 mm 4,6 UV-I 627 W/m 13,2 C 24,6 C 0,0 km/h (0 Bft) 91 %
21.09.2020 13:34 24,7 C 49 % 1014,1 hPa 0,0 l/m 2 min 0 min 0,000 mm 4,6 UV-I 626 W/m 13,3 C 24,7 C 0,0 km/h (0 Bft) 96 %
21.09.2020 13:32 24,8 C 49 % 1014,2 hPa 0,0 l/m 2 min 0 min 0,000 mm 4,6 UV-I 626 W/m 13,3 C 24,8 C 0,0 km/h (0 Bft) 98 %
21.09.2020 13:30 24,9 C 49 % 1014,1 hPa 0,0 l/m 2 min 0 min 0,000 mm 4,7 UV-I 628 W/m 13,4 C 24,9 C 0,0 km/h (0 Bft) 98 %
21.09.2020 13:28 24,7 C 51 % 1014,2 hPa 0,0 l/m 2 min 0 min 0,000 mm 4,7 UV-I 628 W/m 13,9 C 24,7 C 0,0 km/h (0 Bft) 98 %
21.09.2020 13:26 24,6 C 49 % 1014,2 hPa 0,0 l/m 2 min 0 min 0,000 mm 4,7 UV-I 630 W/m 13,2 C 24,6 C 0,0 km/h (0 Bft) 96 %
21.09.2020 13:24 24,6 C 49 % 1014,2 hPa 0,0 l/m 2 min 0 min 0,000 mm 4,7 UV-I 629 W/m 13,2 C 24,6 C 0,0 km/h (0 Bft) 98 %
21.09.2020 13:22 24,6 C 48 % 1014,3 hPa 0,0 l/m 2 min 0 min 0,000 mm 4,6 UV-I 628 W/m 12,8 C 24,6 C 0,0 km/h (0 Bft) 96 %
21.09.2020 13:20 24,7 C 50 % 1014,3 hPa 0,0 l/m 2 min 0 min 0,000 mm 4,6 UV-I 627 W/m 13,6 C 24,7 C 0,0 km/h (0 Bft) 98 %
21.09.2020 13:18 24,6 C 50 % 1014,3 hPa 0,0 l/m 2 min 0 min 0,000 mm 4,6 UV-I 627 W/m 13,5 C 24,6 C 0,0 km/h (0 Bft) 98 %
21.09.2020 13:16 24,6 C 49 % 1014,3 hPa 0,0 l/m 2 min 0 min 0,000 mm 4,6 UV-I 628 W/m 13,2 C 24,6 C 1,6 km/h (1 Bft) 98 %
21.09.2020 13:14 24,7 C 48 % 1014,3 hPa 0,0 l/m 2 min 0 min 0,000 mm 4,6 UV-I 628 W/m 12,9 C 24,7 C 1,6 km/h (1 Bft) 100 %
21.09.2020 13:12 24,7 C 49 % 1014,3 hPa 0,0 l/m 2 min 0 min 0,000 mm 4,6 UV-I 631 W/m 13,3 C 24,7 C 0,0 km/h (0 Bft) 100 %
21.09.2020 13:10 24,7 C 49 % 1014,3 hPa 0,0 l/m 2 min 0 min 0,000 mm 4,6 UV-I 629 W/m 13,3 C 24,7 C 0,0 km/h (0 Bft) 100 %
21.09.2020 13:08 24,7 C 48 % 1014,3 hPa 0,0 l/m 2 min 0 min 0,000 mm 4,6 UV-I 627 W/m 12,9 C 24,7 C 0,0 km/h (0 Bft) 100 %
21.09.2020 13:06 24,6 C 49 % 1014,3 hPa 0,0 l/m 2 min 0 min 0,000 mm 4,6 UV-I 624 W/m 13,2 C 24,6 C 3,2 km/h (1 Bft) 98 %
21.09.2020 13:04 24,4 C 50 % 1014,3 hPa 0,0 l/m 2 min 0 min 0,381 mm 4,6 UV-I 622 W/m 13,3 C 24,4 C 3,2 km/h (1 Bft) 100 %
21.09.2020 13:00 24,3 C 50 % 1014,3 hPa 0,0 l/m 2 min 0 min 0,000 mm 4,6 UV-I 620 W/m 13,2 C 24,3 C 1,6 km/h (1 Bft) 94 %
21.09.2020 12:58 24,3 C 50 % 1014,3 hPa 0,0 l/m 2 min 0 min 0,000 mm 4,5 UV-I 620 W/m 13,2 C 24,3 C 0,0 km/h (0 Bft) 100 %
21.09.2020 12:56 24,2 C 50 % 1014,3 hPa 0,0 l/m 2 min 0 min 0,000 mm 4,5 UV-I 620 W/m 13,1 C 24,2 C 0,0 km/h (0 Bft) 100 %
21.09.2020 12:54 24,2 C 50 % 1014,3 hPa 0,0 l/m 2 min 0 min 0,000 mm 4,5 UV-I 623 W/m 13,1 C 24,2 C 0,0 km/h (0 Bft) 96 %
21.09.2020 12:52 24,1 C 50 % 1014,3 hPa 0,0 l/m 2 min 0 min 0,000 mm 4,5 UV-I 624 W/m 13,0 C 24,1 C 0,0 km/h (0 Bft) 98 %
21.09.2020 12:50 24,1 C 50 % 1014,3 hPa 0,0 l/m 2 min 0 min 0,000 mm 4,5 UV-I 624 W/m 13,0 C 24,1 C 0,0 km/h (0 Bft) 100 %
21.09.2020 12:48 24,1 C 49 % 1014,3 hPa 0,0 l/m 2 min 0 min 0,000 mm 4,5 UV-I 622 W/m 12,7 C 24,1 C 0,0 km/h (0 Bft) 100 %
21.09.2020 12:46 24,1 C 50 % 1014,3 hPa 0,0 l/m 2 min 0 min 0,000 mm 4,5 UV-I 621 W/m 13,0 C 24,1 C 0,0 km/h (0 Bft) 100 %
21.09.2020 12:44 24,1 C 50 % 1014,3 hPa 0,0 l/m 2 min 0 min 0,000 mm 4,5 UV-I 619 W/m 13,0 C 24,1 C 0,0 km/h (0 Bft) 100 %
21.09.2020 12:42 23,9 C 50 % 1014,4 hPa 0,0 l/m 2 min 0 min 0,000 mm 4,5 UV-I 618 W/m 12,8 C 23,9 C 0,0 km/h (0 Bft) 100 %
21.09.2020 12:40 23,8 C 51 % 1014,4 hPa 0,0 l/m 2 min 0 min 0,000 mm 4,4 UV-I 617 W/m 13,0 C 23,8 C 0,0 km/h (0 Bft) 98 %
21.09.2020 12:38 23,8 C 51 % 1014,4 hPa 0,0 l/m 2 min 0 min 0,000 mm 4,4 UV-I 616 W/m 13,0 C 23,8 C 0,0 km/h (0 Bft) 100 %
21.09.2020 12:36 23,7 C 52 % 1014,4 hPa 0,0 l/m 2 min 0 min 0,000 mm 4,4 UV-I 615 W/m 13,2 C 23,7 C 0,0 km/h (0 Bft) 100 %
21.09.2020 12:34 23,6 C 51 % 1014,4 hPa 0,0 l/m 2 min 0 min 0,000 mm 4,4 UV-I 614 W/m 12,9 C 23,6 C 0,0 km/h (0 Bft) 100 %
21.09.2020 12:32 23,4 C 51 % 1014,4 hPa 0,0 l/m 2 min 0 min 0,000 mm 4,4 UV-I 616 W/m 12,7 C 23,4 C 0,0 km/h (0 Bft) 98 %
21.09.2020 12:30 23,4 C 52 % 1014,4 hPa 0,0 l/m 2 min 0 min 0,000 mm 4,4 UV-I 616 W/m 13,0 C 23,4 C 0,0 km/h (0 Bft) 98 %
21.09.2020 12:28 23,2 C 53 % 1014,4 hPa 0,0 l/m 2 min 0 min 0,000 mm 4,3 UV-I 614 W/m 13,1 C 23,2 C 0,0 km/h (0 Bft) 100 %
21.09.2020 12:26 22,9 C 53 % 1014,4 hPa 0,0 l/m 2 min 0 min 0,000 mm 4,3 UV-I 613 W/m 12,8 C 22,9 C 0,0 km/h (0 Bft) 94 %
21.09.2020 12:24 22,9 C 52 % 1014,4 hPa 0,0 l/m 2 min 0 min 0,000 mm 4,3 UV-I 610 W/m 12,5 C 22,9 C 0,0 km/h (0 Bft) 98 %
21.09.2020 12:20 22,9 C 53 % 1014,4 hPa 0,0 l/m 2 min 0 min 0,000 mm 4,3 UV-I 605 W/m 12,8 C 22,9 C 0,0 km/h (0 Bft) 96 %
21.09.2020 12:18 22,9 C 52 % 1014,4 hPa 0,0 l/m 2 min 0 min 0,000 mm 4,2 UV-I 602 W/m 12,5 C 22,9 C 0,0 km/h (0 Bft) 96 %
21.09.2020 12:16 22,9 C 53 % 1014,4 hPa 0,0 l/m 2 min 0 min 0,000 mm 4,2 UV-I 599 W/m 12,8 C 22,9 C 1,6 km/h (1 Bft) 98 %
21.09.2020 12:14 22,8 C 53 % 1014,4 hPa 0,0 l/m 2 min 0 min 0,000 mm 4,2 UV-I 596 W/m 12,7 C 22,8 C 0,0 km/h (0 Bft) 93 %
21.09.2020 12:12 22,7 C 54 % 1014,4 hPa 0,0 l/m 2 min 0 min 0,000 mm 4,2 UV-I 594 W/m 12,9 C 22,7 C 0,0 km/h (0 Bft) 94 %
21.09.2020 12:10 22,6 C 54 % 1014,4 hPa 0,0 l/m 2 min 0 min 0,000 mm 4,1 UV-I 594 W/m 12,8 C 22,6 C 0,0 km/h (0 Bft) 96 %
21.09.2020 12:08 22,6 C 54 % 1014,4 hPa 0,0 l/m 2 min 0 min 0,000 mm 4,1 UV-I 593 W/m 12,8 C 22,6 C 0,0 km/h (0 Bft) 94 %
21.09.2020 12:06 22,7 C 53 % 1014,4 hPa 0,0 l/m 2 min 0 min 0,000 mm 4,1 UV-I 592 W/m 12,6 C 22,7 C 0,0 km/h (0 Bft) 96 %
21.09.2020 12:04 22,6 C 53 % 1014,5 hPa 0,0 l/m 2 min 0 min 0,331 mm 4,0 UV-I 588 W/m 12,5 C 22,6 C 1,6 km/h (1 Bft) 94 %
21.09.2020 12:00 22,2 C 56 % 1014,5 hPa 0,0 l/m 2 min 0 min 0,000 mm 4,0 UV-I 586 W/m 13,0 C 22,2 C 3,2 km/h (1 Bft) 96 %
21.09.2020 11:58 21,9 C 56 % 1014,5 hPa 0,0 l/m 2 min 0 min 0,000 mm 4,0 UV-I 584 W/m 12,7 C 21,9 C 0,0 km/h (0 Bft) 96 %
21.09.2020 11:56 21,8 C 56 % 1014,5 hPa 0,0 l/m 2 min 0 min 0,000 mm 4,0 UV-I 583 W/m 12,6 C 21,8 C 0,0 km/h (0 Bft) 96 %
21.09.2020 11:54 21,7 C 56 % 1014,5 hPa 0,0 l/m 2 min 0 min 0,000 mm 3,9 UV-I 580 W/m 12,5 C 21,7 C 0,0 km/h (0 Bft) 96 %
21.09.2020 11:52 21,6 C 57 % 1014,5 hPa 0,0 l/m 2 min 0 min 0,000 mm 3,9 UV-I 579 W/m 12,7 C 21,6 C 1,6 km/h (1 Bft) 94 %
21.09.2020 11:50 21,4 C 58 % 1014,5 hPa 0,0 l/m 2 min 0 min 0,000 mm 3,9 UV-I 578 W/m 12,8 C 21,4 C 1,6 km/h (1 Bft) 96 %
21.09.2020 11:48 21,3 C 56 % 1014,5 hPa 0,0 l/m 2 min 0 min 0,000 mm 3,9 UV-I 575 W/m 12,2 C 21,3 C 0,0 km/h (0 Bft) 98 %
21.09.2020 11:46 21,3 C 57 % 1014,5 hPa 0,0 l/m 2 min 0 min 0,000 mm 3,8 UV-I 572 W/m 12,4 C 21,3 C 0,0 km/h (0 Bft) 100 %
21.09.2020 11:44 21,3 C 57 % 1014,5 hPa 0,0 l/m 2 min 0 min 0,000 mm 3,8 UV-I 570 W/m 12,4 C 21,3 C 0,0 km/h (0 Bft) 100 %
21.09.2020 11:42 21,2 C 57 % 1014,5 hPa 0,0 l/m 2 min 0 min 0,000 mm 3,8 UV-I 567 W/m 12,3 C 21,2 C 0,0 km/h (0 Bft) 100 %
21.09.2020 11:40 21,2 C 58 % 1014,6 hPa 0,0 l/m 2 min 0 min 0,000 mm 3,7 UV-I 565 W/m 12,6 C 21,2 C 0,0 km/h (0 Bft) 100 %
21.09.2020 11:38 21,1 C 58 % 1014,6 hPa 0,0 l/m 2 min 0 min 0,000 mm 3,7 UV-I 562 W/m 12,5 C 21,1 C 0,0 km/h (0 Bft) 100 %
21.09.2020 11:36 21,2 C 57 % 1014,6 hPa 0,0 l/m 2 min 0 min 0,000 mm 3,7 UV-I 560 W/m 12,3 C 21,2 C 0,0 km/h (0 Bft) 98 %
21.09.2020 11:34 21,2 C 59 % 1014,6 hPa 0,0 l/m 2 min 0 min 0,000 mm 3,6 UV-I 558 W/m 12,9 C 21,2 C 0,0 km/h (0 Bft) 98 %
21.09.2020 11:32 21,1 C 59 % 1014,7 hPa 0,0 l/m 2 min 0 min 0,000 mm 3,6 UV-I 556 W/m 12,8 C 21,1 C 0,0 km/h (0 Bft) 98 %
21.09.2020 11:30 21,1 C 58 % 1014,7 hPa 0,0 l/m 2 min 0 min 0,000 mm 3,6 UV-I 552 W/m 12,5 C 21,1 C 0,0 km/h (0 Bft) 98 %
21.09.2020 11:28 21,0 C 58 % 1014,7 hPa 0,0 l/m 2 min 0 min 0,000 mm 3,5 UV-I 550 W/m 12,4 C 21,0 C 0,0 km/h (0 Bft) 100 %
21.09.2020 11:26 20,9 C 59 % 1014,7 hPa 0,0 l/m 2 min 0 min 0,000 mm 3,5 UV-I 545 W/m 12,6 C 20,9 C 0,0 km/h (0 Bft) 96 %
21.09.2020 11:24 20,8 C 58 % 1014,7 hPa 0,0 l/m 2 min 0 min 0,000 mm 3,5 UV-I 542 W/m 12,2 C 20,8 C 0,0 km/h (0 Bft) 98 %
21.09.2020 11:22 20,8 C 58 % 1014,7 hPa 0,0 l/m 2 min 0 min 0,000 mm 3,4 UV-I 541 W/m 12,2 C 20,8 C 0,0 km/h (0 Bft) 100 %
21.09.2020 11:20 20,7 C 59 % 1014,8 hPa 0,0 l/m 2 min 0 min 0,000 mm 3,4 UV-I 536 W/m 12,4 C 20,7 C 0,0 km/h (0 Bft) 100 %
21.09.2020 11:18 20,6 C 59 % 1014,8 hPa 0,0 l/m 2 min 0 min 0,000 mm 3,3 UV-I 532 W/m 12,3 C 20,6 C 0,0 km/h (0 Bft) 98 %
21.09.2020 11:16 20,4 C 60 % 1014,8 hPa 0,0 l/m 2 min 0 min 0,000 mm 3,3 UV-I 528 W/m 12,4 C 20,4 C 0,0 km/h (0 Bft) 98 %
21.09.2020 11:14 20,2 C 60 % 1014,7 hPa 0,0 l/m 2 min 0 min 0,000 mm 3,3 UV-I 526 W/m 12,2 C 20,2 C 0,0 km/h (0 Bft) 100 %
21.09.2020 11:12 20,1 C 60 % 1014,8 hPa 0,0 l/m 2 min 0 min 0,000 mm 3,2 UV-I 522 W/m 12,1 C 20,1 C 0,0 km/h (0 Bft) 100 %
21.09.2020 11:10 20,1 C 60 % 1014,7 hPa 0,0 l/m 2 min 0 min 0,000 mm 3,2 UV-I 520 W/m 12,1 C 20,1 C 0,0 km/h (0 Bft) 100 %
21.09.2020 11:08 20,0 C 60 % 1014,8 hPa 0,0 l/m 2 min 0 min 0,000 mm 3,2 UV-I 516 W/m 12,0 C 20,0 C 0,0 km/h (0 Bft) 98 %
21.09.2020 11:06 19,9 C 61 % 1014,8 hPa 0,0 l/m 2 min 0 min 0,000 mm 3,1 UV-I 513 W/m 12,2 C 19,9 C 0,0 km/h (0 Bft) 100 %
21.09.2020 11:04 19,8 C 61 % 1014,8 hPa 0,0 l/m 2 min 0 min 0,254 mm 3,1 UV-I 509 W/m 12,1 C 19,8 C 0,0 km/h (0 Bft) 99 %
21.09.2020 11:00 19,6 C 61 % 1014,8 hPa 0,0 l/m 2 min 0 min 0,000 mm 3,0 UV-I 502 W/m 11,9 C 19,6 C 0,0 km/h (0 Bft) 98 %
21.09.2020 10:58 19,5 C 62 % 1014,8 hPa 0,0 l/m 2 min 0 min 0,000 mm 3,0 UV-I 498 W/m 12,0 C 19,5 C 0,0 km/h (0 Bft) 96 %
21.09.2020 10:56 19,3 C 62 % 1014,8 hPa 0,0 l/m 2 min 0 min 0,000 mm 3,0 UV-I 495 W/m 11,8 C 19,3 C 0,0 km/h (0 Bft) 98 %
21.09.2020 10:54 19,2 C 62 % 1014,8 hPa 0,0 l/m 2 min 0 min 0,000 mm 2,9 UV-I 492 W/m 11,7 C 19,2 C 0,0 km/h (0 Bft) 96 %
21.09.2020 10:52 19,2 C 62 % 1014,8 hPa 0,0 l/m 2 min 0 min 0,000 mm 2,9 UV-I 487 W/m 11,7 C 19,2 C 0,0 km/h (0 Bft) 98 %
21.09.2020 10:50 19,1 C 62 % 1014,7 hPa 0,0 l/m 2 min 0 min 0,000 mm 2,8 UV-I 483 W/m 11,6 C 19,1 C 0,0 km/h (0 Bft) 91 %
21.09.2020 10:48 19,1 C 62 % 1014,8 hPa 0,0 l/m 2 min 0 min 0,000 mm 2,8 UV-I 480 W/m 11,6 C 19,1 C 0,0 km/h (0 Bft) 96 %
21.09.2020 10:46 19,0 C 63 % 1014,8 hPa 0,0 l/m 2 min 0 min 0,000 mm 2,8 UV-I 477 W/m 11,8 C 19,0 C 0,0 km/h (0 Bft) 96 %
21.09.2020 10:44 18,9 C 63 % 1014,8 hPa 0,0 l/m 2 min 0 min 0,000 mm 2,7 UV-I 473 W/m 11,7 C 18,9 C 0,0 km/h (0 Bft) 94 %
21.09.2020 10:42 18,9 C 63 % 1014,8 hPa 0,0 l/m 2 min 0 min 0,000 mm 2,7 UV-I 469 W/m 11,7 C 18,9 C 0,0 km/h (0 Bft) 93 %
21.09.2020 10:40 18,8 C 63 % 1014,8 hPa 0,0 l/m 2 min 0 min 0,000 mm 2,6 UV-I 466 W/m 11,6 C 18,8 C 0,0 km/h (0 Bft) 96 %
21.09.2020 10:38 18,7 C 63 % 1014,9 hPa 0,0 l/m 2 min 0 min 0,000 mm 2,6 UV-I 463 W/m 11,5 C 18,7 C 0,0 km/h (0 Bft) 96 %
21.09.2020 10:36 18,7 C 64 % 1014,9 hPa 0,0 l/m 2 min 0 min 0,000 mm 2,6 UV-I 458 W/m 11,7 C 18,7 C 0,0 km/h (0 Bft) 94 %
21.09.2020 10:34 18,6 C 64 % 1014,9 hPa 0,0 l/m 2 min 0 min 0,000 mm 2,5 UV-I 453 W/m 11,7 C 18,6 C 0,0 km/h (0 Bft) 94 %
21.09.2020 10:32 18,4 C 63 % 1014,9 hPa 0,0 l/m 2 min 0 min 0,000 mm 2,5 UV-I 448 W/m 11,2 C 18,4 C 0,0 km/h (0 Bft) 96 %
21.09.2020 10:30 18,3 C 65 % 1014,9 hPa 0,0 l/m 2 min 0 min 0,000 mm 2,4 UV-I 444 W/m 11,6 C 18,3 C 1,6 km/h (1 Bft) 94 %
21.09.2020 10:28 18,0 C 65 % 1014,9 hPa 0,0 l/m 2 min 0 min 0,000 mm 2,4 UV-I 440 W/m 11,3 C 18,0 C 0,0 km/h (0 Bft) 94 %
21.09.2020 10:26 17,9 C 66 % 1014,9 hPa 0,0 l/m 2 min 0 min 0,000 mm 2,4 UV-I 436 W/m 11,5 C 17,9 C 0,0 km/h (0 Bft) 94 %
21.09.2020 10:24 17,7 C 66 % 1014,8 hPa 0,0 l/m 2 min 0 min 0,000 mm 2,3 UV-I 432 W/m 11,3 C 17,7 C 0,0 km/h (0 Bft) 89 %
21.09.2020 10:22 17,6 C 66 % 1014,8 hPa 0,0 l/m 2 min 0 min 0,000 mm 2,3 UV-I 428 W/m 11,2 C 17,6 C 0,0 km/h (0 Bft) 96 %
21.09.2020 10:20 17,4 C 67 % 1014,9 hPa 0,0 l/m 2 min 0 min 0,000 mm 2,3 UV-I 425 W/m 11,2 C 17,4 C 0,0 km/h (0 Bft) 96 %
21.09.2020 10:18 17,3 C 68 % 1014,9 hPa 0,0 l/m 2 min 0 min 0,000 mm 2,2 UV-I 420 W/m 11,3 C 17,3 C 0,0 km/h (0 Bft) 96 %
21.09.2020 10:16 17,1 C 68 % 1014,9 hPa 0,0 l/m 2 min 0 min 0,000 mm 2,2 UV-I 417 W/m 11,1 C 17,1 C 0,0 km/h (0 Bft) 96 %
21.09.2020 10:14 16,9 C 70 % 1014,9 hPa 0,0 l/m 2 min 0 min 0,000 mm 2,2 UV-I 412 W/m 11,4 C 16,9 C 0,0 km/h (0 Bft) 96 %
21.09.2020 10:12 16,7 C 69 % 1014,9 hPa 0,0 l/m 2 min 0 min 0,000 mm 2,1 UV-I 408 W/m 11,0 C 16,7 C 0,0 km/h (0 Bft) 96 %
21.09.2020 10:10 16,6 C 69 % 1014,9 hPa 0,0 l/m 2 min 0 min 0,000 mm 2,1 UV-I 403 W/m 10,9 C 16,6 C 0,0 km/h (0 Bft) 91 %
21.09.2020 10:08 16,5 C 70 % 1015,0 hPa 0,0 l/m 2 min 0 min 0,000 mm 2,0 UV-I 399 W/m 11,0 C 16,5 C 0,0 km/h (0 Bft) 96 %
21.09.2020 10:06 16,4 C 70 % 1015,0 hPa 0,0 l/m 2 min 0 min 0,000 mm 2,0 UV-I 394 W/m 10,9 C 16,4 C 0,0 km/h (0 Bft) 91 %
21.09.2020 10:04 16,3 C 70 % 1015,0 hPa 0,0 l/m 2 min 0 min 0,177 mm 2,0 UV-I 386 W/m 10,8 C 16,3 C 0,0 km/h (0 Bft) 96 %
21.09.2020 10:00 16,2 C 71 % 1015,0 hPa 0,0 l/m 2 min 0 min 0,000 mm 1,9 UV-I 379 W/m 10,9 C 16,2 C 0,0 km/h (0 Bft) 93 %
21.09.2020 09:58 16,2 C 71 % 1015,0 hPa 0,0 l/m 2 min 0 min 0,000 mm 1,9 UV-I 375 W/m 10,9 C 16,2 C 0,0 km/h (0 Bft) 96 %
21.09.2020 09:56 16,2 C 72 % 1015,0 hPa 0,0 l/m 2 min 0 min 0,000 mm 1,8 UV-I 369 W/m 11,1 C 16,2 C 1,6 km/h (1 Bft) 100 %
21.09.2020 09:54 16,1 C 72 % 1015,0 hPa 0,0 l/m 2 min 0 min 0,000 mm 1,8 UV-I 365 W/m 11,0 C 16,1 C 0,0 km/h (0 Bft) 100 %
21.09.2020 09:52 16,1 C 72 % 1015,0 hPa 0,0 l/m 2 min 0 min 0,000 mm 1,8 UV-I 360 W/m 11,0 C 16,1 C 0,0 km/h (0 Bft) 100 %
21.09.2020 09:50 16,1 C 72 % 1015,0 hPa 0,0 l/m 2 min 0 min 0,000 mm 1,7 UV-I 355 W/m 11,0 C 16,1 C 0,0 km/h (0 Bft) 100 %
21.09.2020 09:48 16,0 C 72 % 1015,0 hPa 0,0 l/m 2 min 0 min 0,000 mm 1,7 UV-I 350 W/m 11,0 C 16,0 C 0,0 km/h (0 Bft) 100 %
21.09.2020 09:46 15,9 C 73 % 1015,0 hPa 0,0 l/m 2 min 0 min 0,000 mm 1,7 UV-I 345 W/m 11,1 C 15,9 C 0,0 km/h (0 Bft) 100 %
21.09.2020 09:44 15,9 C 73 % 1015,0 hPa 0,0 l/m 2 min 0 min 0,000 mm 1,6 UV-I 340 W/m 11,1 C 15,9 C 0,0 km/h (0 Bft) 98 %
21.09.2020 09:42 15,8 C 74 % 1015,1 hPa 0,0 l/m 2 min 0 min 0,000 mm 1,6 UV-I 334 W/m 11,2 C 15,8 C 0,0 km/h (0 Bft) 98 %
21.09.2020 09:40 15,6 C 74 % 1015,1 hPa 0,0 l/m 2 min 0 min 0,000 mm 1,6 UV-I 327 W/m 11,0 C 15,6 C 0,0 km/h (0 Bft) 98 %
21.09.2020 09:38 15,5 C 74 % 1015,1 hPa 0,0 l/m 2 min 0 min 0,000 mm 1,5 UV-I 323 W/m 10,9 C 15,5 C 0,0 km/h (0 Bft) 100 %
21.09.2020 09:36 15,4 C 74 % 1015,1 hPa 0,0 l/m 2 min 0 min 0,000 mm 1,5 UV-I 317 W/m 10,8 C 15,4 C 0,0 km/h (0 Bft) 96 %
21.09.2020 09:34 15,2 C 74 % 1015,1 hPa 0,0 l/m 2 min 0 min 0,000 mm 1,5 UV-I 313 W/m 10,6 C 15,2 C 0,0 km/h (0 Bft) 94 %
21.09.2020 09:32 15,0 C 74 % 1015,1 hPa 0,0 l/m 2 min 0 min 0,000 mm 1,4 UV-I 308 W/m 10,4 C 15,0 C 0,0 km/h (0 Bft) 96 %
21.09.2020 09:30 15,0 C 75 % 1015,1 hPa 0,0 l/m 2 min 0 min 0,000 mm 1,4 UV-I 303 W/m 10,6 C 15,0 C 0,0 km/h (0 Bft) 96 %
21.09.2020 09:28 14,8 C 76 % 1015,1 hPa 0,0 l/m 2 min 0 min 0,000 mm 1,4 UV-I 298 W/m 10,6 C 14,8 C 0,0 km/h (0 Bft) 98 %
21.09.2020 09:26 14,5 C 77 % 1015,1 hPa 0,0 l/m 2 min 0 min 0,000 mm 1,3 UV-I 293 W/m 10,5 C 14,5 C 0,0 km/h (0 Bft) 98 %
21.09.2020 09:24 14,3 C 77 % 1015,1 hPa 0,0 l/m 2 min 0 min 0,000 mm 1,3 UV-I 289 W/m 10,3 C 14,3 C 0,0 km/h (0 Bft) 98 %
21.09.2020 09:22 14,0 C 78 % 1015,1 hPa 0,0 l/m 2 min 0 min 0,000 mm 1,3 UV-I 284 W/m 10,2 C 14,0 C 0,0 km/h (0 Bft) 98 %
21.09.2020 09:20 13,7 C 79 % 1015,1 hPa 0,0 l/m 2 min 0 min 0,000 mm 1,3 UV-I 279 W/m 10,1 C 13,7 C 0,0 km/h (0 Bft) 98 %
21.09.2020 09:18 13,5 C 79 % 1015,1 hPa 0,0 l/m 2 min 0 min 0,000 mm 1,3 UV-I 274 W/m 9,9 C 13,5 C 0,0 km/h (0 Bft) 98 %
21.09.2020 09:16 13,3 C 78 % 1015,1 hPa 0,0 l/m 2 min 0 min 0,000 mm 1,3 UV-I 269 W/m 9,5 C 13,3 C 0,0 km/h (0 Bft) 98 %
21.09.2020 09:14 13,2 C 78 % 1015,1 hPa 0,0 l/m 2 min 0 min 0,000 mm 1,2 UV-I 265 W/m 9,4 C 13,2 C 0,0 km/h (0 Bft) 96 %
21.09.2020 09:12 13,1 C 79 % 1015,2 hPa 0,0 l/m 2 min 0 min 0,000 mm 1,2 UV-I 260 W/m 9,5 C 13,1 C 0,0 km/h (0 Bft) 96 %
21.09.2020 09:10 13,0 C 79 % 1015,2 hPa 0,0 l/m 2 min 0 min 0,000 mm 1,2 UV-I 256 W/m 9,4 C 13,0 C 0,0 km/h (0 Bft) 98 %
21.09.2020 09:08 12,9 C 78 % 1015,1 hPa 0,0 l/m 2 min 0 min 0,000 mm 1,1 UV-I 251 W/m 9,2 C 12,9 C 0,0 km/h (0 Bft) 98 %
21.09.2020 09:06 12,8 C 78 % 1015,1 hPa 0,0 l/m 2 min 0 min 0,000 mm 1,1 UV-I 246 W/m 9,1 C 12,8 C 0,0 km/h (0 Bft) 94 %
21.09.2020 09:04 12,7 C 78 % 1015,2 hPa 0,0 l/m 2 min 0 min 0,077 mm 1,1 UV-I 240 W/m 9,0 C 12,7 C 0,0 km/h (0 Bft) 97 %
21.09.2020 09:00 12,6 C 79 % 1015,1 hPa 0,0 l/m 2 min 0 min 0,000 mm 1,1 UV-I 232 W/m 9,1 C 12,6 C 0,0 km/h (0 Bft) 100 %
21.09.2020 08:58 12,4 C 78 % 1015,1 hPa 0,0 l/m 2 min 0 min 0,000 mm 1,0 UV-I 226 W/m 8,7 C 12,4 C 0,0 km/h (0 Bft) 100 %
21.09.2020 08:56 12,3 C 79 % 1015,1 hPa 0,0 l/m 2 min 0 min 0,000 mm 1,0 UV-I 220 W/m 8,8 C 12,3 C 0,0 km/h (0 Bft) 100 %
21.09.2020 08:54 12,2 C 79 % 1015,0 hPa 0,0 l/m 2 min 0 min 0,000 mm 1,0 UV-I 212 W/m 8,7 C 12,2 C 0,0 km/h (0 Bft) 96 %
21.09.2020 08:52 12,1 C 79 % 1015,0 hPa 0,0 l/m 2 min 0 min 0,000 mm 1,0 UV-I 206 W/m 8,6 C 12,1 C 0,0 km/h (0 Bft) 100 %
21.09.2020 08:50 12,1 C 79 % 1014,9 hPa 0,0 l/m 2 min 0 min 0,000 mm 1,0 UV-I 200 W/m 8,6 C 12,1 C 0,0 km/h (0 Bft) 100 %
21.09.2020 08:48 11,9 C 79 % 1015,0 hPa 0,0 l/m 2 min 0 min 0,000 mm 1,0 UV-I 194 W/m 8,4 C 11,9 C 1,6 km/h (1 Bft) 98 %
21.09.2020 08:46 11,8 C 80 % 1014,9 hPa 0,0 l/m 2 min 0 min 0,000 mm 0,9 UV-I 188 W/m 8,5 C 11,8 C 0,0 km/h (0 Bft) 98 %
21.09.2020 08:44 11,7 C 80 % 1014,9 hPa 0,0 l/m 2 min 0 min 0,000 mm 0,9 UV-I 182 W/m 8,4 C 11,7 C 0,0 km/h (0 Bft) 96 %
21.09.2020 08:42 11,6 C 80 % 1014,9 hPa 0,0 l/m 2 min 0 min 0,000 mm 0,9 UV-I 176 W/m 8,3 C 11,6 C 0,0 km/h (0 Bft) 100 %
21.09.2020 08:40 11,4 C 80 % 1014,9 hPa 0,0 l/m 2 min 0 min 0,000 mm 0,9 UV-I 170 W/m 8,1 C 11,4 C 0,0 km/h (0 Bft) 100 %
21.09.2020 08:38 11,4 C 80 % 1014,9 hPa 0,0 l/m 2 min 0 min 0,000 mm 0,9 UV-I 164 W/m 8,1 C 11,4 C 0,0 km/h (0 Bft) 98 %
21.09.2020 08:36 11,3 C 81 % 1014,9 hPa 0,0 l/m 2 min 0 min 0,000 mm 0,9 UV-I 157 W/m 8,2 C 11,3 C 0,0 km/h (0 Bft) 98 %
21.09.2020 08:34 11,2 C 81 % 1015,0 hPa 0,0 l/m 2 min 0 min 0,000 mm 0,8 UV-I 151 W/m 8,1 C 11,2 C 0,0 km/h (0 Bft) 98 %
21.09.2020 08:32 11,1 C 81 % 1014,9 hPa 0,0 l/m 2 min 0 min 0,000 mm 0,8 UV-I 144 W/m 8,0 C 11,1 C 0,0 km/h (0 Bft) 98 %
21.09.2020 08:30 11,0 C 81 % 1014,8 hPa 0,0 l/m 2 min 0 min 0,000 mm 0,8 UV-I 139 W/m 7,9 C 11,0 C 0,0 km/h (0 Bft) 98 %
21.09.2020 08:28 10,9 C 82 % 1014,8 hPa 0,0 l/m 2 min 0 min 0,000 mm 0,8 UV-I 134 W/m 7,9 C 10,9 C 0,0 km/h (0 Bft) 98 %
21.09.2020 08:26 10,8 C 82 % 1014,8 hPa 0,0 l/m 2 min 0 min 0,000 mm 0,8 UV-I 127 W/m 7,9 C 10,8 C 1,6 km/h (1 Bft) 98 %
21.09.2020 08:24 10,8 C 82 % 1014,9 hPa 0,0 l/m 2 min 0 min 0,000 mm 0,8 UV-I 121 W/m 7,9 C 10,8 C 0,0 km/h (0 Bft) 96 %
21.09.2020 08:22 10,7 C 82 % 1014,9 hPa 0,0 l/m 2 min 0 min 0,000 mm 0,7 UV-I 115 W/m 7,8 C 10,7 C 1,6 km/h (1 Bft) 98 %
21.09.2020 08:20 10,6 C 82 % 1014,8 hPa 0,0 l/m 2 min 0 min 0,000 mm 0,7 UV-I 110 W/m 7,7 C 10,6 C 0,0 km/h (0 Bft) 96 %
21.09.2020 08:18 10,5 C 82 % 1014,8 hPa 0,0 l/m 2 min 0 min 0,000 mm 0,7 UV-I 104 W/m 7,6 C 10,5 C 8,0 km/h (2 Bft) 94 %
21.09.2020 08:16 10,4 C 82 % 1014,8 hPa 0,0 l/m 2 min 0 min 0,000 mm 0,7 UV-I 98 W/m 7,5 C 10,4 C 4,8 km/h (1 Bft) 98 %
21.09.2020 08:14 10,4 C 83 % 1014,7 hPa 0,0 l/m 2 min 0 min 0,000 mm 0,7 UV-I 93 W/m 7,6 C 10,4 C 9,7 km/h (2 Bft) 98 %
21.09.2020 08:12 10,3 C 83 % 1014,7 hPa 0,0 l/m 2 min 0 min 0,000 mm 0,7 UV-I 88 W/m 7,5 C 10,3 C 3,2 km/h (1 Bft) 96 %
21.09.2020 08:10 10,3 C 83 % 1014,7 hPa 0,0 l/m 2 min 0 min 0,000 mm 0,7 UV-I 83 W/m 7,5 C 10,3 C 3,2 km/h (1 Bft) 98 %
21.09.2020 08:08 10,2 C 83 % 1014,7 hPa 0,0 l/m 2 min 0 min 0,000 mm 0,7 UV-I 78 W/m 7,4 C 10,2 C 4,8 km/h (1 Bft) 98 %
21.09.2020 08:06 10,2 C 84 % 1014,7 hPa 0,0 l/m 0 min 0 min 0,000 mm 0,7 UV-I 72 W/m 7,6 C 10,2 C 3,2 km/h (1 Bft) 91 %
21.09.2020 08:04 10,1 C 84 % 1014,6 hPa 0,0 l/m 0 min 0 min 0,025 mm 0,6 UV-I 66 W/m 7,5 C 10,1 C 8,0 km/h (2 Bft) 99 %
21.09.2020 08:00 9,9 C 84 % 1014,6 hPa 0,0 l/m 0 min 0 min 0,000 mm 0,6 UV-I 59 W/m 7,3 C 9,9 C 9,7 km/h (2 Bft) 100 %
21.09.2020 07:58 9,9 C 84 % 1014,7 hPa 0,0 l/m 0 min 0 min 0,000 mm 0,6 UV-I 54 W/m 7,3 C 9,9 C 1,6 km/h (1 Bft) 98 %
21.09.2020 07:56 9,8 C 84 % 1014,7 hPa 0,0 l/m 0 min 0 min 0,000 mm 0,6 UV-I 50 W/m 7,2 C 9,8 C 1,6 km/h (1 Bft) 98 %
21.09.2020 07:54 9,8 C 85 % 1014,6 hPa 0,0 l/m 0 min 0 min 0,000 mm 0,6 UV-I 46 W/m 7,4 C 9,8 C 11,3 km/h (2 Bft) 98 %
21.09.2020 07:52 9,8 C 84 % 1014,6 hPa 0,0 l/m 0 min 0 min 0,000 mm 0,0 UV-I 42 W/m 7,2 C 9,8 C 11,3 km/h (2 Bft) 94 %
21.09.2020 07:50 9,7 C 84 % 1014,6 hPa 0,0 l/m 0 min 0 min 0,000 mm 0,0 UV-I 37 W/m 7,1 C 8,5 C 11,3 km/h (2 Bft) 96 %
21.09.2020 07:48 9,7 C 85 % 1014,6 hPa 0,0 l/m 0 min 0 min 0,000 mm 0,0 UV-I 34 W/m 7,3 C 7,7 C 12,9 km/h (3 Bft) 98 %
21.09.2020 07:46 9,7 C 85 % 1014,6 hPa 0,0 l/m 0 min 0 min 0,000 mm 0,0 UV-I 25 W/m 7,3 C 8,3 C 11,3 km/h (2 Bft) 96 %
21.09.2020 07:44 9,7 C 85 % 1014,6 hPa 0,0 l/m 0 min 0 min 0,000 mm 0,0 UV-I 23 W/m 7,3 C 7,9 C 14,5 km/h (3 Bft) 94 %
21.09.2020 07:42 9,7 C 85 % 1014,5 hPa 0,0 l/m 0 min 0 min 0,000 mm 0,0 UV-I 21 W/m 7,3 C 7,4 C 14,5 km/h (3 Bft) 96 %
21.09.2020 07:40 9,6 C 85 % 1014,6 hPa 0,0 l/m 0 min 0 min 0,000 mm 0,0 UV-I 20 W/m 7,2 C 7,5 C 17,7 km/h (3 Bft) 100 %
21.09.2020 07:38 9,6 C 85 % 1014,7 hPa 0,0 l/m 0 min 0 min 0,000 mm 0,0 UV-I 19 W/m 7,2 C 8,2 C 12,9 km/h (3 Bft) 98 %
21.09.2020 07:36 9,6 C 85 % 1014,7 hPa 0,0 l/m 0 min 0 min 0,000 mm 0,0 UV-I 16 W/m 7,2 C 8,0 C 12,9 km/h (3 Bft) 98 %
21.09.2020 07:34 9,6 C 85 % 1014,7 hPa 0,0 l/m 0 min 0 min 0,000 mm 0,0 UV-I 16 W/m 7,2 C 8,4 C 11,3 km/h (2 Bft) 100 %
21.09.2020 07:32 9,6 C 85 % 1014,7 hPa 0,0 l/m 0 min 0 min 0,000 mm 0,0 UV-I 14 W/m 7,2 C 7,6 C 14,5 km/h (3 Bft) 100 %
21.09.2020 07:30 9,6 C 85 % 1014,7 hPa 0,0 l/m 0 min 0 min 0,000 mm 0,0 UV-I 13 W/m 7,2 C 7,6 C 14,5 km/h (3 Bft) 100 %
21.09.2020 07:28 9,6 C 85 % 1014,7 hPa 0,0 l/m 0 min 0 min 0,000 mm 0,0 UV-I 13 W/m 7,2 C 8,6 C 14,5 km/h (3 Bft) 98 %
21.09.2020 07:26 9,5 C 85 % 1014,7 hPa 0,0 l/m 0 min 0 min 0,000 mm 0,0 UV-I 11 W/m 7,1 C 9,5 C 14,5 km/h (3 Bft) 98 %
21.09.2020 07:24 9,5 C 85 % 1014,7 hPa 0,0 l/m 0 min 0 min 0,000 mm 0,0 UV-I 9 W/m 7,1 C 9,5 C 11,3 km/h (2 Bft) 100 %
21.09.2020 07:22 9,5 C 85 % 1014,7 hPa 0,0 l/m 0 min 0 min 0,000 mm 0,0 UV-I 9 W/m 7,1 C 9,5 C 9,7 km/h (2 Bft) 96 %
21.09.2020 07:20 9,5 C 85 % 1014,7 hPa 0,0 l/m 0 min 0 min 0,000 mm 0,0 UV-I 7 W/m 7,1 C 9,5 C 11,3 km/h (2 Bft) 100 %
21.09.2020 07:18 9,5 C 85 % 1014,7 hPa 0,0 l/m 0 min 0 min 0,000 mm 0,0 UV-I 7 W/m 7,1 C 9,5 C 3,2 km/h (1 Bft) 100 %
21.09.2020 07:16 9,5 C 85 % 1014,7 hPa 0,0 l/m 0 min 0 min 0,000 mm 0,0 UV-I 6 W/m 7,1 C 9,5 C 1,6 km/h (1 Bft) 100 %
21.09.2020 07:14 9,6 C 84 % 1014,7 hPa 0,0 l/m 0 min 0 min 0,000 mm 0,0 UV-I 4 W/m 7,0 C 9,6 C 1,6 km/h (1 Bft) 100 %
21.09.2020 07:12 9,6 C 84 % 1014,7 hPa 0,0 l/m 0 min 0 min 0,000 mm 0,0 UV-I 2 W/m 7,0 C 9,6 C 1,6 km/h (1 Bft) 100 %
21.09.2020 07:10 9,6 C 84 % 1014,7 hPa 0,0 l/m 0 min 0 min 0,000 mm 0,0 UV-I 1 W/m 7,0 C 9,6 C 4,8 km/h (1 Bft) 98 %
21.09.2020 07:08 9,7 C 84 % 1014,6 hPa 0,0 l/m 0 min 0 min 0,000 mm 0,0 UV-I 0 W/m 7,1 C 9,7 C 3,2 km/h (1 Bft) 100 %
21.09.2020 07:06 9,7 C 84 % 1014,7 hPa 0,0 l/m 0 min 0 min 0,000 mm 0,0 UV-I 0 W/m 7,1 C 9,7 C 1,6 km/h (1 Bft) 100 %
21.09.2020 07:04 9,7 C 84 % 1014,6 hPa 0,0 l/m 0 min 0 min 0,000 mm 0,0 UV-I 0 W/m 7,1 C 9,7 C 6,4 km/h (2 Bft) 97 %
21.09.2020 07:00 9,8 C 83 % 1014,6 hPa 0,0 l/m 0 min 0 min 0,000 mm 0,0 UV-I 0 W/m 7,1 C 9,8 C 4,8 km/h (1 Bft) 100 %
21.09.2020 06:58 9,9 C 83 % 1014,6 hPa 0,0 l/m 0 min 0 min 0,000 mm 0,0 UV-I 0 W/m 7,2 C 9,9 C 4,8 km/h (1 Bft) 98 %
21.09.2020 06:56 9,9 C 83 % 1014,7 hPa 0,0 l/m 0 min 0 min 0,000 mm 0,0 UV-I 0 W/m 7,2 C 9,9 C 3,2 km/h (1 Bft) 100 %
21.09.2020 06:54 9,9 C 83 % 1014,7 hPa 0,0 l/m 0 min 0 min 0,000 mm 0,0 UV-I 0 W/m 7,2 C 9,9 C 4,8 km/h (1 Bft) 100 %
21.09.2020 06:52 10,0 C 83 % 1014,7 hPa 0,0 l/m 0 min 0 min 0,000 mm 0,0 UV-I 0 W/m 7,2 C 10,0 C 9,7 km/h (2 Bft) 100 %
21.09.2020 06:50 10,1 C 83 % 1014,7 hPa 0,0 l/m 0 min 0 min 0,000 mm 0,0 UV-I 0 W/m 7,3 C 10,1 C 4,8 km/h (1 Bft) 96 %
21.09.2020 06:48 10,1 C 83 % 1014,7 hPa 0,0 l/m 0 min 0 min 0,000 mm 0,0 UV-I 0 W/m 7,3 C 10,1 C 6,4 km/h (2 Bft) 100 %
21.09.2020 06:46 10,2 C 83 % 1014,7 hPa 0,0 l/m 0 min 0 min 0,000 mm 0,0 UV-I 0 W/m 7,4 C 10,2 C 4,8 km/h (1 Bft) 100 %
21.09.2020 06:44 10,2 C 83 % 1014,8 hPa 0,0 l/m 0 min 0 min 0,000 mm 0,0 UV-I 0 W/m 7,4 C 10,2 C 4,8 km/h (1 Bft) 98 %
21.09.2020 06:42 10,2 C 83 % 1014,7 hPa 0,0 l/m 0 min 0 min 0,000 mm 0,0 UV-I 0 W/m 7,4 C 10,2 C 4,8 km/h (1 Bft) 96 %
21.09.2020 06:40 10,2 C 83 % 1014,7 hPa 0,0 l/m 0 min 0 min 0,000 mm 0,0 UV-I 0 W/m 7,4 C 10,2 C 1,6 km/h (1 Bft) 96 %
21.09.2020 06:38 10,2 C 83 % 1014,8 hPa 0,0 l/m 0 min 0 min 0,000 mm 0,0 UV-I 0 W/m 7,4 C 10,2 C 0,0 km/h (0 Bft) 96 %
21.09.2020 06:36 10,2 C 83 % 1014,8 hPa 0,0 l/m 0 min 0 min 0,000 mm 0,0 UV-I 0 W/m 7,4 C 10,2 C 0,0 km/h (0 Bft) 96 %
21.09.2020 06:34 10,2 C 83 % 1014,7 hPa 0,0 l/m 0 min 0 min 0,000 mm 0,0 UV-I 0 W/m 7,4 C 10,2 C 0,0 km/h (0 Bft) 96 %
21.09.2020 06:32 10,2 C 83 % 1014,7 hPa 0,0 l/m 0 min 0 min 0,000 mm 0,0 UV-I 0 W/m 7,4 C 10,2 C 0,0 km/h (0 Bft) 91 %
21.09.2020 06:30 10,2 C 83 % 1014,7 hPa 0,0 l/m 0 min 0 min 0,000 mm 0,0 UV-I 0 W/m 7,4 C 10,2 C 0,0 km/h (0 Bft) 96 %
21.09.2020 06:28 10,2 C 83 % 1014,7 hPa 0,0 l/m 0 min 0 min 0,000 mm 0,0 UV-I 0 W/m 7,4 C 10,2 C 0,0 km/h (0 Bft) 93 %
21.09.2020 06:26 10,2 C 83 % 1014,6 hPa 0,0 l/m 0 min 0 min 0,000 mm 0,0 UV-I 0 W/m 7,4 C 10,2 C 0,0 km/h (0 Bft) 96 %
21.09.2020 06:24 10,2 C 83 % 1014,6 hPa 0,0 l/m 0 min 0 min 0,000 mm 0,0 UV-I 0 W/m 7,4 C 10,2 C 0,0 km/h (0 Bft) 93 %
21.09.2020 06:20 10,2 C 82 % 1014,6 hPa 0,0 l/m 0 min 0 min 0,000 mm 0,0 UV-I 0 W/m 7,3 C 10,2 C 1,6 km/h (1 Bft) 96 %
21.09.2020 06:18 10,3 C 82 % 1014,6 hPa 0,0 l/m 0 min 0 min 0,000 mm 0,0 UV-I 0 W/m 7,4 C 10,3 C 0,0 km/h (0 Bft) 96 %
21.09.2020 06:16 10,3 C 82 % 1014,6 hPa 0,0 l/m 0 min 0 min 0,000 mm 0,0 UV-I 0 W/m 7,4 C 10,3 C 0,0 km/h (0 Bft) 93 %
21.09.2020 06:14 10,3 C 82 % 1014,6 hPa 0,0 l/m 0 min 0 min 0,000 mm 0,0 UV-I 0 W/m 7,4 C 10,3 C 0,0 km/h (0 Bft) 94 %
21.09.2020 06:12 10,4 C 82 % 1014,5 hPa 0,0 l/m 0 min 0 min 0,000 mm 0,0 UV-I 0 W/m 7,5 C 10,4 C 0,0 km/h (0 Bft) 96 %
21.09.2020 06:10 10,4 C 82 % 1014,5 hPa 0,0 l/m 0 min 0 min 0,000 mm 0,0 UV-I 0 W/m 7,5 C 10,4 C 0,0 km/h (0 Bft) 100 %
21.09.2020 06:08 10,5 C 82 % 1014,5 hPa 0,0 l/m 0 min 0 min 0,000 mm 0,0 UV-I 0 W/m 7,6 C 10,5 C 0,0 km/h (0 Bft) 98 %
21.09.2020 06:06 10,6 C 81 % 1014,5 hPa 0,0 l/m 0 min 0 min 0,000 mm 0,0 UV-I 0 W/m 7,5 C 10,6 C 0,0 km/h (0 Bft) 98 %
21.09.2020 06:04 10,6 C 81 % 1014,5 hPa 0,0 l/m 0 min 0 min 0,000 mm 0,0 UV-I 0 W/m 7,5 C 10,6 C 0,0 km/h (0 Bft) 98 %
21.09.2020 06:00 10,7 C 81 % 1014,5 hPa 0,0 l/m 0 min 0 min 0,000 mm 0,0 UV-I 0 W/m 7,6 C 10,7 C 0,0 km/h (0 Bft) 96 %
21.09.2020 05:58 10,7 C 81 % 1014,4 hPa 0,0 l/m 0 min 0 min 0,000 mm 0,0 UV-I 0 W/m 7,6 C 10,7 C 0,0 km/h (0 Bft) 96 %
21.09.2020 05:56 10,8 C 81 % 1014,5 hPa 0,0 l/m 0 min 0 min 0,000 mm 0,0 UV-I 0 W/m 7,7 C 10,8 C 0,0 km/h (0 Bft) 96 %
21.09.2020 05:54 10,8 C 81 % 1014,6 hPa 0,0 l/m 0 min 0 min 0,000 mm 0,0 UV-I 0 W/m 7,7 C 10,8 C 0,0 km/h (0 Bft) 96 %
21.09.2020 05:52 10,8 C 81 % 1014,6 hPa 0,0 l/m 0 min 0 min 0,000 mm 0,0 UV-I 0 W/m 7,7 C 10,8 C 0,0 km/h (0 Bft) 98 %
21.09.2020 05:50 10,9 C 81 % 1014,6 hPa 0,0 l/m 0 min 0 min 0,000 mm 0,0 UV-I 0 W/m 7,8 C 10,9 C 0,0 km/h (0 Bft) 98 %
21.09.2020 05:48 10,9 C 81 % 1014,7 hPa 0,0 l/m 0 min 0 min 0,000 mm 0,0 UV-I 0 W/m 7,8 C 10,9 C 0,0 km/h (0 Bft) 98 %
21.09.2020 05:46 10,9 C 81 % 1014,6 hPa 0,0 l/m 0 min 0 min 0,000 mm 0,0 UV-I 0 W/m 7,8 C 10,9 C 0,0 km/h (0 Bft) 98 %
21.09.2020 05:44 10,9 C 81 % 1014,6 hPa 0,0 l/m 0 min 0 min 0,000 mm 0,0 UV-I 0 W/m 7,8 C 10,9 C 0,0 km/h (0 Bft) 98 %
21.09.2020 05:42 10,9 C 80 % 1014,5 hPa 0,0 l/m 0 min 0 min 0,000 mm 0,0 UV-I 0 W/m 7,6 C 10,9 C 0,0 km/h (0 Bft) 98 %
21.09.2020 05:40 10,9 C 80 % 1014,4 hPa 0,0 l/m 0 min 0 min 0,000 mm 0,0 UV-I 0 W/m 7,6 C 10,9 C 0,0 km/h (0 Bft) 94 %
21.09.2020 05:38 10,9 C 80 % 1014,5 hPa 0,0 l/m 0 min 0 min 0,000 mm 0,0 UV-I 0 W/m 7,6 C 10,9 C 0,0 km/h (0 Bft) 98 %
21.09.2020 05:36 11,0 C 80 % 1014,4 hPa 0,0 l/m 0 min 0 min 0,000 mm 0,0 UV-I 0 W/m 7,7 C 11,0 C 0,0 km/h (0 Bft) 98 %
21.09.2020 05:34 11,0 C 81 % 1014,5 hPa 0,0 l/m 0 min 0 min 0,000 mm 0,0 UV-I 0 W/m 7,9 C 11,0 C 0,0 km/h (0 Bft) 98 %
21.09.2020 05:32 11,0 C 81 % 1014,4 hPa 0,0 l/m 0 min 0 min 0,000 mm 0,0 UV-I 0 W/m 7,9 C 11,0 C 0,0 km/h (0 Bft) 98 %
21.09.2020 05:30 11,0 C 81 % 1014,4 hPa 0,0 l/m 0 min 0 min 0,000 mm 0,0 UV-I 0 W/m 7,9 C 11,0 C 0,0 km/h (0 Bft) 98 %
21.09.2020 05:28 11,0 C 81 % 1014,4 hPa 0,0 l/m 0 min 0 min 0,000 mm 0,0 UV-I 0 W/m 7,9 C 11,0 C 0,0 km/h (0 Bft) 98 %
21.09.2020 05:26 11,0 C 81 % 1014,4 hPa 0,0 l/m 0 min 0 min 0,000 mm 0,0 UV-I 0 W/m 7,9 C 11,0 C 0,0 km/h (0 Bft) 98 %
21.09.2020 05:24 10,9 C 81 % 1014,3 hPa 0,0 l/m 0 min 0 min 0,000 mm 0,0 UV-I 0 W/m 7,8 C 10,9 C 0,0 km/h (0 Bft) 96 %
21.09.2020 05:22 10,9 C 81 % 1014,2 hPa 0,0 l/m 0 min 0 min 0,000 mm 0,0 UV-I 0 W/m 7,8 C 10,9 C 0,0 km/h (0 Bft) 98 %
21.09.2020 05:20 10,9 C 81 % 1014,2 hPa 0,0 l/m 0 min 0 min 0,000 mm 0,0 UV-I 0 W/m 7,8 C 10,9 C 0,0 km/h (0 Bft) 94 %
21.09.2020 05:18 10,9 C 82 % 1014,2 hPa 0,0 l/m 0 min 0 min 0,000 mm 0,0 UV-I 0 W/m 7,9 C 10,9 C 0,0 km/h (0 Bft) 93 %
21.09.2020 05:16 10,9 C 82 % 1014,2 hPa 0,0 l/m 0 min 0 min 0,000 mm 0,0 UV-I 0 W/m 7,9 C 10,9 C 0,0 km/h (0 Bft) 98 %
21.09.2020 05:14 10,9 C 82 % 1014,2 hPa 0,0 l/m 0 min 0 min 0,000 mm 0,0 UV-I 0 W/m 7,9 C 10,9 C 3,2 km/h (1 Bft) 94 %
21.09.2020 05:12 10,9 C 81 % 1014,2 hPa 0,0 l/m 0 min 0 min 0,000 mm 0,0 UV-I 0 W/m 7,8 C 10,9 C 1,6 km/h (1 Bft) 94 %
21.09.2020 05:10 10,9 C 81 % 1014,2 hPa 0,0 l/m 0 min 0 min 0,000 mm 0,0 UV-I 0 W/m 7,8 C 10,9 C 4,8 km/h (1 Bft) 94 %
21.09.2020 05:08 10,9 C 81 % 1014,2 hPa 0,0 l/m 0 min 0 min 0,000 mm 0,0 UV-I 0 W/m 7,8 C 10,9 C 4,8 km/h (1 Bft) 94 %
21.09.2020 05:06 11,0 C 81 % 1014,2 hPa 0,0 l/m 0 min 0 min 0,000 mm 0,0 UV-I 0 W/m 7,9 C 11,0 C 9,7 km/h (2 Bft) 96 %
21.09.2020 05:04 11,1 C 81 % 1014,2 hPa 0,0 l/m 0 min 0 min 0,000 mm 0,0 UV-I 0 W/m 8,0 C 11,1 C 8,0 km/h (2 Bft) 93 %
21.09.2020 05:00 11,2 C 81 % 1014,3 hPa 0,0 l/m 0 min 0 min 0,000 mm 0,0 UV-I 0 W/m 8,1 C 11,2 C 6,4 km/h (2 Bft) 96 %
21.09.2020 04:58 11,2 C 81 % 1014,2 hPa 0,0 l/m 0 min 0 min 0,000 mm 0,0 UV-I 0 W/m 8,1 C 11,2 C 6,4 km/h (2 Bft) 94 %
21.09.2020 04:56 11,2 C 81 % 1014,3 hPa 0,0 l/m 0 min 0 min 0,000 mm 0,0 UV-I 0 W/m 8,1 C 11,2 C 1,6 km/h (1 Bft) 96 %
21.09.2020 04:54 11,3 C 81 % 1014,3 hPa 0,0 l/m 0 min 0 min 0,000 mm 0,0 UV-I 0 W/m 8,2 C 11,3 C 4,8 km/h (1 Bft) 89 %
21.09.2020 04:52 11,3 C 81 % 1014,3 hPa 0,0 l/m 0 min 0 min 0,000 mm 0,0 UV-I 0 W/m 8,2 C 11,3 C 6,4 km/h (2 Bft) 89 %
21.09.2020 04:50 11,3 C 81 % 1014,3 hPa 0,0 l/m 0 min 0 min 0,000 mm 0,0 UV-I 0 W/m 8,2 C 11,3 C 4,8 km/h (1 Bft) 94 %
21.09.2020 04:48 11,3 C 80 % 1014,3 hPa 0,0 l/m 0 min 0 min 0,000 mm 0,0 UV-I 0 W/m 8,0 C 11,3 C 6,4 km/h (2 Bft) 98 %
21.09.2020 04:46 11,3 C 80 % 1014,3 hPa 0,0 l/m 0 min 0 min 0,000 mm 0,0 UV-I 0 W/m 8,0 C 11,3 C 12,9 km/h (3 Bft) 96 %
21.09.2020 04:44 11,3 C 80 % 1014,3 hPa 0,0 l/m 0 min 0 min 0,000 mm 0,0 UV-I 0 W/m 8,0 C 11,3 C 9,7 km/h (2 Bft) 98 %
21.09.2020 04:42 11,3 C 81 % 1014,3 hPa 0,0 l/m 0 min 0 min 0,000 mm 0,0 UV-I 0 W/m 8,2 C 11,3 C 3,2 km/h (1 Bft) 98 %
21.09.2020 04:40 11,3 C 80 % 1014,3 hPa 0,0 l/m 0 min 0 min 0,000 mm 0,0 UV-I 0 W/m 8,0 C 11,3 C 4,8 km/h (1 Bft) 94 %
21.09.2020 04:38 11,3 C 81 % 1014,4 hPa 0,0 l/m 0 min 0 min 0,000 mm 0,0 UV-I 0 W/m 8,2 C 11,3 C 9,7 km/h (2 Bft) 96 %
21.09.2020 04:36 11,3 C 81 % 1014,4 hPa 0,0 l/m 0 min 0 min 0,000 mm 0,0 UV-I 0 W/m 8,2 C 11,3 C 8,0 km/h (2 Bft) 98 %
21.09.2020 04:34 11,3 C 81 % 1014,4 hPa 0,0 l/m 0 min 0 min 0,000 mm 0,0 UV-I 0 W/m 8,2 C 11,3 C 1,6 km/h (1 Bft) 98 %
21.09.2020 04:32 11,3 C 81 % 1014,4 hPa 0,0 l/m 0 min 0 min 0,000 mm 0,0 UV-I 0 W/m 8,2 C 11,3 C 0,0 km/h (0 Bft) 98 %
21.09.2020 04:30 11,3 C 81 % 1014,4 hPa 0,0 l/m 0 min 0 min 0,000 mm 0,0 UV-I 0 W/m 8,2 C 11,3 C 1,6 km/h (1 Bft) 98 %
21.09.2020 04:28 11,3 C 81 % 1014,4 hPa 0,0 l/m 0 min 0 min 0,000 mm 0,0 UV-I 0 W/m 8,2 C 11,3 C 3,2 km/h (1 Bft) 98 %
21.09.2020 04:26 11,3 C 81 % 1014,5 hPa 0,0 l/m 0 min 0 min 0,000 mm 0,0 UV-I 0 W/m 8,2 C 11,3 C 6,4 km/h (2 Bft) 96 %
21.09.2020 04:24 11,3 C 81 % 1014,5 hPa 0,0 l/m 0 min 0 min 0,000 mm 0,0 UV-I 0 W/m 8,2 C 11,3 C 3,2 km/h (1 Bft) 96 %
21.09.2020 04:22 11,2 C 81 % 1014,5 hPa 0,0 l/m 0 min 0 min 0,000 mm 0,0 UV-I 0 W/m 8,1 C 11,2 C 4,8 km/h (1 Bft) 100 %
21.09.2020 04:20 11,2 C 81 % 1014,5 hPa 0,0 l/m 0 min 0 min 0,000 mm 0,0 UV-I 0 W/m 8,1 C 11,2 C 6,4 km/h (2 Bft) 100 %
21.09.2020 04:18 11,2 C 81 % 1014,5 hPa 0,0 l/m 0 min 0 min 0,000 mm 0,0 UV-I 0 W/m 8,1 C 11,2 C 4,8 km/h (1 Bft) 96 %
21.09.2020 04:16 11,2 C 81 % 1014,5 hPa 0,0 l/m 0 min 0 min 0,000 mm 0,0 UV-I 0 W/m 8,1 C 11,2 C 1,6 km/h (1 Bft) 100 %
21.09.2020 04:14 11,2 C 81 % 1014,5 hPa 0,0 l/m 0 min 0 min 0,000 mm 0,0 UV-I 0 W/m 8,1 C 11,2 C 3,2 km/h (1 Bft) 98 %
21.09.2020 04:12 11,2 C 81 % 1014,5 hPa 0,0 l/m 0 min 0 min 0,000 mm 0,0 UV-I 0 W/m 8,1 C 11,2 C 8,0 km/h (2 Bft) 100 %
21.09.2020 04:10 11,2 C 81 % 1014,5 hPa 0,0 l/m 0 min 0 min 0,000 mm 0,0 UV-I 0 W/m 8,1 C 11,2 C 3,2 km/h (1 Bft) 98 %
21.09.2020 04:08 11,3 C 81 % 1014,5 hPa 0,0 l/m 0 min 0 min 0,000 mm 0,0 UV-I 0 W/m 8,2 C 11,3 C 1,6 km/h (1 Bft) 98 %
21.09.2020 04:06 11,3 C 80 % 1014,4 hPa 0,0 l/m 0 min 0 min 0,000 mm 0,0 UV-I 0 W/m 8,0 C 11,3 C 3,2 km/h (1 Bft) 98 %
21.09.2020 04:04 11,4 C 80 % 1014,4 hPa 0,0 l/m 0 min 0 min 0,000 mm 0,0 UV-I 0 W/m 8,1 C 11,4 C 8,0 km/h (2 Bft) 100 %
21.09.2020 04:00 11,4 C 80 % 1014,5 hPa 0,0 l/m 0 min 0 min 0,000 mm 0,0 UV-I 0 W/m 8,1 C 11,4 C 4,8 km/h (1 Bft) 100 %
21.09.2020 03:58 11,5 C 80 % 1014,5 hPa 0,0 l/m 0 min 0 min 0,000 mm 0,0 UV-I 0 W/m 8,2 C 11,5 C 3,2 km/h (1 Bft) 100 %
21.09.2020 03:56 11,5 C 80 % 1014,5 hPa 0,0 l/m 0 min 0 min 0,000 mm 0,0 UV-I 0 W/m 8,2 C 11,5 C 0,0 km/h (0 Bft) 98 %
21.09.2020 03:54 11,6 C 80 % 1014,5 hPa 0,0 l/m 0 min 0 min 0,000 mm 0,0 UV-I 0 W/m 8,3 C 11,6 C 9,7 km/h (2 Bft) 98 %
21.09.2020 03:52 11,6 C 80 % 1014,5 hPa 0,0 l/m 0 min 0 min 0,000 mm 0,0 UV-I 0 W/m 8,3 C 11,6 C 0,0 km/h (0 Bft) 100 %
21.09.2020 03:50 11,7 C 80 % 1014,5 hPa 0,0 l/m 0 min 0 min 0,000 mm 0,0 UV-I 0 W/m 8,4 C 11,7 C 0,0 km/h (0 Bft) 98 %
21.09.2020 03:48 11,7 C 80 % 1014,5 hPa 0,0 l/m 0 min 0 min 0,000 mm 0,0 UV-I 0 W/m 8,4 C 11,7 C 0,0 km/h (0 Bft) 96 %
21.09.2020 03:46 11,7 C 80 % 1014,5 hPa 0,0 l/m 0 min 0 min 0,000 mm 0,0 UV-I 0 W/m 8,4 C 11,7 C 9,7 km/h (2 Bft) 96 %
21.09.2020 03:44 11,7 C 80 % 1014,6 hPa 0,0 l/m 0 min 0 min 0,000 mm 0,0 UV-I 0 W/m 8,4 C 11,7 C 6,4 km/h (2 Bft) 98 %
21.09.2020 03:42 11,7 C 80 % 1014,5 hPa 0,0 l/m 0 min 0 min 0,000 mm 0,0 UV-I 0 W/m 8,4 C 11,7 C 6,4 km/h (2 Bft) 96 %
21.09.2020 03:40 11,7 C 80 % 1014,5 hPa 0,0 l/m 0 min 0 min 0,000 mm 0,0 UV-I 0 W/m 8,4 C 11,7 C 3,2 km/h (1 Bft) 98 %
21.09.2020 03:38 11,7 C 80 % 1014,5 hPa 0,0 l/m 0 min 0 min 0,000 mm 0,0 UV-I 0 W/m 8,4 C 11,7 C 0,0 km/h (0 Bft) 98 %
21.09.2020 03:36 11,7 C 80 % 1014,5 hPa 0,0 l/m 0 min 0 min 0,000 mm 0,0 UV-I 0 W/m 8,4 C 11,7 C 0,0 km/h (0 Bft) 94 %
21.09.2020 03:34 11,8 C 80 % 1014,5 hPa 0,0 l/m 0 min 0 min 0,000 mm 0,0 UV-I 0 W/m 8,5 C 11,8 C 1,6 km/h (1 Bft) 98 %
21.09.2020 03:32 11,8 C 80 % 1014,5 hPa 0,0 l/m 0 min 0 min 0,000 mm 0,0 UV-I 0 W/m 8,5 C 11,8 C 3,2 km/h (1 Bft) 94 %
21.09.2020 03:30 11,8 C 80 % 1014,5 hPa 0,0 l/m 0 min 0 min 0,000 mm 0,0 UV-I 0 W/m 8,5 C 11,8 C 1,6 km/h (1 Bft) 98 %
21.09.2020 03:28 11,7 C 80 % 1014,6 hPa 0,0 l/m 0 min 0 min 0,000 mm 0,0 UV-I 0 W/m 8,4 C 11,7 C 0,0 km/h (0 Bft) 96 %
21.09.2020 03:26 11,7 C 80 % 1014,5 hPa 0,0 l/m 0 min 0 min 0,000 mm 0,0 UV-I 0 W/m 8,4 C 11,7 C 1,6 km/h (1 Bft) 100 %
21.09.2020 03:24 11,7 C 80 % 1014,6 hPa 0,0 l/m 0 min 0 min 0,000 mm 0,0 UV-I 0 W/m 8,4 C 11,7 C 1,6 km/h (1 Bft) 94 %
21.09.2020 03:22 11,7 C 80 % 1014,6 hPa 0,0 l/m 0 min 0 min 0,000 mm 0,0 UV-I 0 W/m 8,4 C 11,7 C 0,0 km/h (0 Bft) 100 %
21.09.2020 03:20 11,7 C 80 % 1014,6 hPa 0,0 l/m 0 min 0 min 0,000 mm 0,0 UV-I 0 W/m 8,4 C 11,7 C 1,6 km/h (1 Bft) 100 %
21.09.2020 03:18 11,7 C 81 % 1014,6 hPa 0,0 l/m 0 min 0 min 0,000 mm 0,0 UV-I 0 W/m 8,5 C 11,7 C 0,0 km/h (0 Bft) 98 %
21.09.2020 03:16 11,6 C 81 % 1014,7 hPa 0,0 l/m 0 min 0 min 0,000 mm 0,0 UV-I 0 W/m 8,5 C 11,6 C 0,0 km/h (0 Bft) 100 %
21.09.2020 03:14 11,6 C 81 % 1014,7 hPa 0,0 l/m 0 min 0 min 0,000 mm 0,0 UV-I 0 W/m 8,5 C 11,6 C 1,6 km/h (1 Bft) 100 %
21.09.2020 03:12 11,6 C 81 % 1014,7 hPa 0,0 l/m 0 min 0 min 0,000 mm 0,0 UV-I 0 W/m 8,5 C 11,6 C 1,6 km/h (1 Bft) 100 %
21.09.2020 03:10 11,5 C 81 % 1014,7 hPa 0,0 l/m 0 min 0 min 0,000 mm 0,0 UV-I 0 W/m 8,4 C 11,5 C 1,6 km/h (1 Bft) 98 %
21.09.2020 03:08 11,5 C 81 % 1014,7 hPa 0,0 l/m 0 min 0 min 0,000 mm 0,0 UV-I 0 W/m 8,4 C 11,5 C 0,0 km/h (0 Bft) 100 %
21.09.2020 03:06 11,5 C 80 % 1014,7 hPa 0,0 l/m 0 min 0 min 0,000 mm 0,0 UV-I 0 W/m 8,2 C 11,5 C 0,0 km/h (0 Bft) 96 %
21.09.2020 03:04 11,5 C 80 % 1014,7 hPa 0,0 l/m 0 min 0 min 0,000 mm 0,0 UV-I 0 W/m 8,2 C 11,5 C 0,0 km/h (0 Bft) 100 %
21.09.2020 03:02 11,5 C 80 % 1014,8 hPa 0,0 l/m 0 min 0 min 0,000 mm 0,0 UV-I 0 W/m 8,2 C 11,5 C 1,6 km/h (1 Bft) 100 %
21.09.2020 03:00 11,6 C 80 % 1014,8 hPa 0,0 l/m 0 min 0 min 0,000 mm 0,0 UV-I 0 W/m 8,3 C 11,6 C 3,2 km/h (1 Bft) 96 %
21.09.2020 02:58 11,6 C 79 % 1014,9 hPa 0,0 l/m 0 min 0 min 0,000 mm 0,0 UV-I 0 W/m 8,1 C 11,6 C 0,0 km/h (0 Bft) 96 %
21.09.2020 02:56 11,6 C 79 % 1014,9 hPa 0,0 l/m 0 min 0 min 0,000 mm 0,0 UV-I 0 W/m 8,1 C 11,6 C 0,0 km/h (0 Bft) 96 %
21.09.2020 02:54 11,7 C 79 % 1014,9 hPa 0,0 l/m 0 min 0 min 0,000 mm 0,0 UV-I 0 W/m 8,2 C 11,7 C 0,0 km/h (0 Bft) 96 %
21.09.2020 02:52 11,7 C 79 % 1014,9 hPa 0,0 l/m 0 min 0 min 0,000 mm 0,0 UV-I 0 W/m 8,2 C 11,7 C 0,0 km/h (0 Bft) 98 %
21.09.2020 02:50 11,7 C 79 % 1014,9 hPa 0,0 l/m 0 min 0 min 0,000 mm 0,0 UV-I 0 W/m 8,2 C 11,7 C 0,0 km/h (0 Bft) 98 %
21.09.2020 02:48 11,8 C 79 % 1015,0 hPa 0,0 l/m 0 min 0 min 0,000 mm 0,0 UV-I 0 W/m 8,3 C 11,8 C 0,0 km/h (0 Bft) 96 %
21.09.2020 02:46 11,8 C 78 % 1015,0 hPa 0,0 l/m 0 min 0 min 0,000 mm 0,0 UV-I 0 W/m 8,1 C 11,8 C 0,0 km/h (0 Bft) 98 %
21.09.2020 02:44 11,9 C 78 % 1015,0 hPa 0,0 l/m 0 min 0 min 0,000 mm 0,0 UV-I 0 W/m 8,2 C 11,9 C 0,0 km/h (0 Bft) 98 %
21.09.2020 02:42 11,9 C 78 % 1015,1 hPa 0,0 l/m 0 min 0 min 0,000 mm 0,0 UV-I 0 W/m 8,2 C 11,9 C 0,0 km/h (0 Bft) 98 %
21.09.2020 02:40 12,0 C 78 % 1015,1 hPa 0,0 l/m 0 min 0 min 0,000 mm 0,0 UV-I 0 W/m 8,3 C 12,0 C 0,0 km/h (0 Bft) 96 %
21.09.2020 02:38 12,0 C 78 % 1015,1 hPa 0,0 l/m 0 min 0 min 0,000 mm 0,0 UV-I 0 W/m 8,3 C 12,0 C 0,0 km/h (0 Bft) 96 %
21.09.2020 02:36 12,0 C 78 % 1015,1 hPa 0,0 l/m 0 min 0 min 0,000 mm 0,0 UV-I 0 W/m 8,3 C 12,0 C 0,0 km/h (0 Bft) 96 %
21.09.2020 02:34 12,1 C 78 % 1015,1 hPa 0,0 l/m 0 min 0 min 0,000 mm 0,0 UV-I 0 W/m 8,4 C 12,1 C 0,0 km/h (0 Bft) 98 %
21.09.2020 02:32 12,1 C 78 % 1015,1 hPa 0,0 l/m 0 min 0 min 0,000 mm 0,0 UV-I 0 W/m 8,4 C 12,1 C 0,0 km/h (0 Bft) 98 %
21.09.2020 02:30 12,1 C 78 % 1015,0 hPa 0,0 l/m 0 min 0 min 0,000 mm 0,0 UV-I 0 W/m 8,4 C 12,1 C 0,0 km/h (0 Bft) 98 %
21.09.2020 02:28 12,1 C 78 % 1015,1 hPa 0,0 l/m 0 min 0 min 0,000 mm 0,0 UV-I 0 W/m 8,4 C 12,1 C 0,0 km/h (0 Bft) 98 %
21.09.2020 02:26 12,1 C 78 % 1015,0 hPa 0,0 l/m 0 min 0 min 0,000 mm 0,0 UV-I 0 W/m 8,4 C 12,1 C 0,0 km/h (0 Bft) 98 %
21.09.2020 02:24 12,1 C 78 % 1015,0 hPa 0,0 l/m 0 min 0 min 0,000 mm 0,0 UV-I 0 W/m 8,4 C 12,1 C 0,0 km/h (0 Bft) 98 %
21.09.2020 02:22 12,1 C 78 % 1015,0 hPa 0,0 l/m 0 min 0 min 0,000 mm 0,0 UV-I 0 W/m 8,4 C 12,1 C 0,0 km/h (0 Bft) 98 %
21.09.2020 02:20 12,1 C 78 % 1015,0 hPa 0,0 l/m 0 min 0 min 0,000 mm 0,0 UV-I 0 W/m 8,4 C 12,1 C 0,0 km/h (0 Bft) 98 %
21.09.2020 02:18 12,1 C 78 % 1015,0 hPa 0,0 l/m 0 min 0 min 0,000 mm 0,0 UV-I 0 W/m 8,4 C 12,1 C 0,0 km/h (0 Bft) 96 %
21.09.2020 02:16 12,1 C 78 % 1015,0 hPa 0,0 l/m 0 min 0 min 0,000 mm 0,0 UV-I 0 W/m 8,4 C 12,1 C 0,0 km/h (0 Bft) 98 %
21.09.2020 02:14 12,2 C 78 % 1014,9 hPa 0,0 l/m 0 min 0 min 0,000 mm 0,0 UV-I 0 W/m 8,5 C 12,2 C 0,0 km/h (0 Bft) 96 %
21.09.2020 02:12 12,2 C 77 % 1015,0 hPa 0,0 l/m 0 min 0 min 0,000 mm 0,0 UV-I 0 W/m 8,3 C 12,2 C 0,0 km/h (0 Bft) 96 %
21.09.2020 02:10 12,2 C 77 % 1015,0 hPa 0,0 l/m 0 min 0 min 0,000 mm 0,0 UV-I 0 W/m 8,3 C 12,2 C 0,0 km/h (0 Bft) 96 %
21.09.2020 02:08 12,2 C 78 % 1015,0 hPa 0,0 l/m 0 min 0 min 0,000 mm 0,0 UV-I 0 W/m 8,5 C 12,2 C 0,0 km/h (0 Bft) 91 %
21.09.2020 02:06 12,2 C 77 % 1014,9 hPa 0,0 l/m 0 min 0 min 0,000 mm 0,0 UV-I 0 W/m 8,3 C 12,2 C 0,0 km/h (0 Bft) 98 %
21.09.2020 02:04 12,3 C 77 % 1014,9 hPa 0,0 l/m 0 min 0 min 0,000 mm 0,0 UV-I 0 W/m 8,4 C 12,3 C 0,0 km/h (0 Bft) 98 %
21.09.2020 02:00 12,3 C 77 % 1014,9 hPa 0,0 l/m 0 min 0 min 0,000 mm 0,0 UV-I 0 W/m 8,4 C 12,3 C 0,0 km/h (0 Bft) 100 %
21.09.2020 01:58 12,4 C 77 % 1014,9 hPa 0,0 l/m 0 min 0 min 0,000 mm 0,0 UV-I 0 W/m 8,5 C 12,4 C 0,0 km/h (0 Bft) 98 %
21.09.2020 01:56 12,4 C 77 % 1015,0 hPa 0,0 l/m 0 min 0 min 0,000 mm 0,0 UV-I 0 W/m 8,5 C 12,4 C 0,0 km/h (0 Bft) 100 %
21.09.2020 01:54 12,4 C 77 % 1015,0 hPa 0,0 l/m 0 min 0 min 0,000 mm 0,0 UV-I 0 W/m 8,5 C 12,4 C 0,0 km/h (0 Bft) 98 %
21.09.2020 01:50 12,4 C 76 % 1015,0 hPa 0,0 l/m 0 min 0 min 0,000 mm 0,0 UV-I 0 W/m 8,3 C 12,4 C 0,0 km/h (0 Bft) 94 %
21.09.2020 01:45 12,4 C 76 % 1015,0 hPa 0,0 l/m 0 min 0 min 0,000 mm 0,0 UV-I 0 W/m 8,3 C 12,4 C 0,0 km/h (0 Bft) 92 %
21.09.2020 01:40 12,5 C 76 % 1015,1 hPa 0,0 l/m 0 min 0 min 0,000 mm 0,0 UV-I 0 W/m 8,4 C 12,5 C 0,0 km/h (0 Bft) 98 %
21.09.2020 01:38 12,6 C 76 % 1015,1 hPa 0,0 l/m 0 min 0 min 0,000 mm 0,0 UV-I 0 W/m 8,5 C 12,6 C 0,0 km/h (0 Bft) 98 %
21.09.2020 01:36 12,6 C 76 % 1015,1 hPa 0,0 l/m 0 min 0 min 0,000 mm 0,0 UV-I 0 W/m 8,5 C 12,6 C 0,0 km/h (0 Bft) 98 %
21.09.2020 01:34 12,6 C 76 % 1015,0 hPa 0,0 l/m 0 min 0 min 0,000 mm 0,0 UV-I 0 W/m 8,5 C 12,6 C 0,0 km/h (0 Bft) 98 %
21.09.2020 01:32 12,6 C 76 % 1015,0 hPa 0,0 l/m 0 min 0 min 0,000 mm 0,0 UV-I 0 W/m 8,5 C 12,6 C 0,0 km/h (0 Bft) 98 %
21.09.2020 01:30 12,6 C 76 % 1015,1 hPa 0,0 l/m 0 min 0 min 0,000 mm 0,0 UV-I 0 W/m 8,5 C 12,6 C 0,0 km/h (0 Bft) 98 %
21.09.2020 01:28 12,6 C 76 % 1015,0 hPa 0,0 l/m 0 min 0 min 0,000 mm 0,0 UV-I 0 W/m 8,5 C 12,6 C 0,0 km/h (0 Bft) 98 %
21.09.2020 01:26 12,7 C 75 % 1015,0 hPa 0,0 l/m 0 min 0 min 0,000 mm 0,0 UV-I 0 W/m 8,4 C 12,7 C 0,0 km/h (0 Bft) 98 %
21.09.2020 01:24 12,7 C 75 % 1015,0 hPa 0,0 l/m 0 min 0 min 0,000 mm 0,0 UV-I 0 W/m 8,4 C 12,7 C 1,6 km/h (1 Bft) 96 %
21.09.2020 01:22 12,7 C 75 % 1015,0 hPa 0,0 l/m 0 min 0 min 0,000 mm 0,0 UV-I 0 W/m 8,4 C 12,7 C 4,8 km/h (1 Bft) 98 %
21.09.2020 01:20 12,7 C 75 % 1015,0 hPa 0,0 l/m 0 min 0 min 0,000 mm 0,0 UV-I 0 W/m 8,4 C 12,7 C 0,0 km/h (0 Bft) 98 %
21.09.2020 01:18 12,7 C 75 % 1015,0 hPa 0,0 l/m 0 min 0 min 0,000 mm 0,0 UV-I 0 W/m 8,4 C 12,7 C 0,0 km/h (0 Bft) 96 %
21.09.2020 01:16 12,7 C 75 % 1015,0 hPa 0,0 l/m 0 min 0 min 0,000 mm 0,0 UV-I 0 W/m 8,4 C 12,7 C 0,0 km/h (0 Bft) 96 %
21.09.2020 01:14 12,7 C 75 % 1015,0 hPa 0,0 l/m 0 min 0 min 0,000 mm 0,0 UV-I 0 W/m 8,4 C 12,7 C 0,0 km/h (0 Bft) 96 %
21.09.2020 01:12 12,8 C 75 % 1015,0 hPa 0,0 l/m 0 min 0 min 0,000 mm 0,0 UV-I 0 W/m 8,5 C 12,8 C 0,0 km/h (0 Bft) 98 %
21.09.2020 01:10 12,8 C 74 % 1015,0 hPa 0,0 l/m 0 min 0 min 0,000 mm 0,0 UV-I 0 W/m 8,3 C 12,8 C 0,0 km/h (0 Bft) 98 %
21.09.2020 01:08 12,9 C 74 % 1015,1 hPa 0,0 l/m 0 min 0 min 0,000 mm 0,0 UV-I 0 W/m 8,4 C 12,9 C 0,0 km/h (0 Bft) 91 %
21.09.2020 01:06 13,0 C 74 % 1015,0 hPa 0,0 l/m 0 min 0 min 0,000 mm 0,0 UV-I 0 W/m 8,5 C 13,0 C 0,0 km/h (0 Bft) 96 %
21.09.2020 01:04 13,1 C 74 % 1015,0 hPa 0,0 l/m 0 min 0 min 0,000 mm 0,0 UV-I 0 W/m 8,6 C 13,1 C 0,0 km/h (0 Bft) 96 %
21.09.2020 01:00 13,1 C 74 % 1015,0 hPa 0,0 l/m 0 min 0 min 0,000 mm 0,0 UV-I 0 W/m 8,6 C 13,1 C 1,6 km/h (1 Bft) 89 %
21.09.2020 00:58 13,2 C 74 % 1015,1 hPa 0,0 l/m 0 min 0 min 0,000 mm 0,0 UV-I 0 W/m 8,7 C 13,2 C 0,0 km/h (0 Bft) 94 %
21.09.2020 00:56 13,2 C 73 % 1015,1 hPa 0,0 l/m 0 min 0 min 0,000 mm 0,0 UV-I 0 W/m 8,5 C 13,2 C 1,6 km/h (1 Bft) 91 %
21.09.2020 00:54 13,3 C 73 % 1015,1 hPa 0,0 l/m 0 min 0 min 0,000 mm 0,0 UV-I 0 W/m 8,6 C 13,3 C 0,0 km/h (0 Bft) 93 %
21.09.2020 00:52 13,3 C 73 % 1015,1 hPa 0,0 l/m 0 min 0 min 0,000 mm 0,0 UV-I 0 W/m 8,6 C 13,3 C 1,6 km/h (1 Bft) 89 %
21.09.2020 00:50 13,3 C 73 % 1015,1 hPa 0,0 l/m 0 min 0 min 0,000 mm 0,0 UV-I 0 W/m 8,6 C 13,3 C 0,0 km/h (0 Bft) 94 %
21.09.2020 00:48 13,3 C 73 % 1015,2 hPa 0,0 l/m 0 min 0 min 0,000 mm 0,0 UV-I 0 W/m 8,6 C 13,3 C 0,0 km/h (0 Bft) 94 %
21.09.2020 00:46 13,4 C 73 % 1015,2 hPa 0,0 l/m 0 min 0 min 0,000 mm 0,0 UV-I 0 W/m 8,7 C 13,4 C 1,6 km/h (1 Bft) 94 %
21.09.2020 00:44 13,4 C 72 % 1015,2 hPa 0,0 l/m 0 min 0 min 0,000 mm 0,0 UV-I 0 W/m 8,5 C 13,4 C 0,0 km/h (0 Bft) 93 %
21.09.2020 00:42 13,5 C 72 % 1015,3 hPa 0,0 l/m 0 min 0 min 0,000 mm 0,0 UV-I 0 W/m 8,6 C 13,5 C 0,0 km/h (0 Bft) 94 %
21.09.2020 00:40 13,6 C 72 % 1015,3 hPa 0,0 l/m 0 min 0 min 0,000 mm 0,0 UV-I 0 W/m 8,6 C 13,6 C 0,0 km/h (0 Bft) 94 %
21.09.2020 00:38 13,6 C 72 % 1015,3 hPa 0,0 l/m 0 min 0 min 0,000 mm 0,0 UV-I 0 W/m 8,6 C 13,6 C 0,0 km/h (0 Bft) 96 %
21.09.2020 00:36 13,7 C 72 % 1015,4 hPa 0,0 l/m 0 min 0 min 0,000 mm 0,0 UV-I 0 W/m 8,7 C 13,7 C 0,0 km/h (0 Bft) 96 %
21.09.2020 00:34 13,7 C 72 % 1015,3 hPa 0,0 l/m 0 min 0 min 0,000 mm 0,0 UV-I 0 W/m 8,7 C 13,7 C 0,0 km/h (0 Bft) 98 %
21.09.2020 00:32 13,8 C 72 % 1015,3 hPa 0,0 l/m 0 min 0 min 0,000 mm 0,0 UV-I 0 W/m 8,8 C 13,8 C 0,0 km/h (0 Bft) 91 %
21.09.2020 00:30 13,8 C 71 % 1015,4 hPa 0,0 l/m 0 min 0 min 0,000 mm 0,0 UV-I 0 W/m 8,6 C 13,8 C 0,0 km/h (0 Bft) 96 %
21.09.2020 00:28 13,8 C 71 % 1015,4 hPa 0,0 l/m 0 min 0 min 0,000 mm 0,0 UV-I 0 W/m 8,6 C 13,8 C 1,6 km/h (1 Bft) 98 %
21.09.2020 00:26 13,9 C 71 % 1015,4 hPa 0,0 l/m 0 min 0 min 0,000 mm 0,0 UV-I 0 W/m 8,7 C 13,9 C 0,0 km/h (0 Bft) 96 %
21.09.2020 00:24 13,9 C 71 % 1015,4 hPa 0,0 l/m 0 min 0 min 0,000 mm 0,0 UV-I 0 W/m 8,7 C 13,9 C 0,0 km/h (0 Bft) 97 %
21.09.2020 00:20 14,1 C 70 % 1015,4 hPa 0,0 l/m 0 min 0 min 0,000 mm 0,0 UV-I 0 W/m 8,7 C 14,1 C 0,0 km/h (0 Bft) 98 %
21.09.2020 00:18 14,1 C 70 % 1015,4 hPa 0,0 l/m 0 min 0 min 0,000 mm 0,0 UV-I 0 W/m 8,7 C 14,1 C 0,0 km/h (0 Bft) 98 %
21.09.2020 00:16 14,2 C 70 % 1015,4 hPa 0,0 l/m 0 min 0 min 0,000 mm 0,0 UV-I 0 W/m 8,8 C 14,2 C 0,0 km/h (0 Bft) 98 %
21.09.2020 00:14 14,2 C 70 % 1015,4 hPa 0,0 l/m 0 min 0 min 0,000 mm 0,0 UV-I 0 W/m 8,8 C 14,2 C 0,0 km/h (0 Bft) 98 %
21.09.2020 00:12 14,2 C 70 % 1015,4 hPa 0,0 l/m 0 min 0 min 0,000 mm 0,0 UV-I 0 W/m 8,8 C 14,2 C 0,0 km/h (0 Bft) 98 %
21.09.2020 00:10 14,2 C 70 % 1015,4 hPa 0,0 l/m 0 min 0 min 0,000 mm 0,0 UV-I 0 W/m 8,8 C 14,2 C 0,0 km/h (0 Bft) 98 %
21.09.2020 00:08 14,2 C 70 % 1015,3 hPa 0,0 l/m 0 min 0 min 0,000 mm 0,0 UV-I 0 W/m 8,8 C 14,2 C 0,0 km/h (0 Bft) 98 %
21.09.2020 00:06 14,3 C 70 % 1015,4 hPa 0,0 l/m 0 min 0 min 0,000 mm 0,0 UV-I 0 W/m 8,9 C 14,3 C 1,6 km/h (1 Bft) 98 %
21.09.2020 00:04 14,3 C 70 % 1015,4 hPa 0,0 l/m 0 min 0 min 0,000 mm 0,0 UV-I 0 W/m 8,9 C 14,3 C 0,0 km/h (0 Bft) 99 %
21.09.2020 00:00 14,3 C 70 % 1015,4 hPa 0,0 l/m 0 min 0 min 0,000 mm 0,0 UV-I 0 W/m 8,9 C 14,3 C 0,0 km/h (0 Bft) 100 %
20.09.2020 23:58 14,3 C 69 % 1015,4 hPa 0,0 l/m 0 min 0 min 0,000 mm 0,0 UV-I 0 W/m 8,7 C 14,3 C 0,0 km/h (0 Bft) 100 %
20.09.2020 23:56 14,4 C 69 % 1015,4 hPa 0,0 l/m 0 min 0 min 0,000 mm 0,0 UV-I 0 W/m 8,8 C 14,4 C 0,0 km/h (0 Bft) 98 %
20.09.2020 23:54 14,4 C 69 % 1015,4 hPa 0,0 l/m 0 min 0 min 0,000 mm 0,0 UV-I 0 W/m 8,8 C 14,4 C 0,0 km/h (0 Bft) 100 %
20.09.2020 23:52 14,5 C 69 % 1015,4 hPa 0,0 l/m 0 min 0 min 0,000 mm 0,0 UV-I 0 W/m 8,9 C 14,5 C 0,0 km/h (0 Bft) 100 %
20.09.2020 23:50 14,6 C 68 % 1015,4 hPa 0,0 l/m 0 min 0 min 0,000 mm 0,0 UV-I 0 W/m 8,8 C 14,6 C 0,0 km/h (0 Bft) 100 %
20.09.2020 23:48 14,6 C 68 % 1015,4 hPa 0,0 l/m 0 min 0 min 0,000 mm 0,0 UV-I 0 W/m 8,8 C 14,6 C 0,0 km/h (0 Bft) 98 %
20.09.2020 23:46 14,7 C 68 % 1015,4 hPa 0,0 l/m 0 min 0 min 0,000 mm 0,0 UV-I 0 W/m 8,9 C 14,7 C 0,0 km/h (0 Bft) 100 %
20.09.2020 23:44 14,7 C 68 % 1015,4 hPa 0,0 l/m 0 min 0 min 0,000 mm 0,0 UV-I 0 W/m 8,9 C 14,7 C 0,0 km/h (0 Bft) 100 %
20.09.2020 23:42 14,8 C 68 % 1015,5 hPa 0,0 l/m 0 min 0 min 0,000 mm 0,0 UV-I 0 W/m 9,0 C 14,8 C 0,0 km/h (0 Bft) 98 %
20.09.2020 23:40 14,8 C 68 % 1015,5 hPa 0,0 l/m 0 min 0 min 0,000 mm 0,0 UV-I 0 W/m 9,0 C 14,8 C 0,0 km/h (0 Bft) 96 %
20.09.2020 23:38 14,9 C 68 % 1015,5 hPa 0,0 l/m 0 min 0 min 0,000 mm 0,0 UV-I 0 W/m 9,0 C 14,9 C 0,0 km/h (0 Bft) 98 %
20.09.2020 23:36 15,0 C 68 % 1015,6 hPa 0,0 l/m 0 min 0 min 0,000 mm 0,0 UV-I 0 W/m 9,1 C 15,0 C 0,0 km/h (0 Bft) 94 %
20.09.2020 23:34 15,0 C 68 % 1015,5 hPa 0,0 l/m 0 min 0 min 0,000 mm 0,0 UV-I 0 W/m 9,1 C 15,0 C 0,0 km/h (0 Bft) 98 %
20.09.2020 23:32 15,0 C 68 % 1015,5 hPa 0,0 l/m 0 min 0 min 0,000 mm 0,0 UV-I 0 W/m 9,1 C 15,0 C 0,0 km/h (0 Bft) 98 %
20.09.2020 23:30 15,0 C 67 % 1015,5 hPa 0,0 l/m 0 min 0 min 0,000 mm 0,0 UV-I 0 W/m 8,9 C 15,0 C 0,0 km/h (0 Bft) 98 %
20.09.2020 23:28 15,0 C 67 % 1015,5 hPa 0,0 l/m 0 min 0 min 0,000 mm 0,0 UV-I 0 W/m 8,9 C 15,0 C 0,0 km/h (0 Bft) 94 %
20.09.2020 23:26 15,1 C 67 % 1015,5 hPa 0,0 l/m 0 min 0 min 0,000 mm 0,0 UV-I 0 W/m 9,0 C 15,1 C 0,0 km/h (0 Bft) 96 %
20.09.2020 23:24 15,2 C 66 % 1015,5 hPa 0,0 l/m 0 min 0 min 0,000 mm 0,0 UV-I 0 W/m 8,9 C 15,2 C 0,0 km/h (0 Bft) 98 %
20.09.2020 23:22 15,3 C 66 % 1015,5 hPa 0,0 l/m 0 min 0 min 0,000 mm 0,0 UV-I 0 W/m 9,0 C 15,3 C 0,0 km/h (0 Bft) 96 %
20.09.2020 23:20 15,3 C 66 % 1015,4 hPa 0,0 l/m 0 min 0 min 0,000 mm 0,0 UV-I 0 W/m 9,0 C 15,3 C 0,0 km/h (0 Bft) 98 %
20.09.2020 23:18 15,4 C 66 % 1015,4 hPa 0,0 l/m 0 min 0 min 0,000 mm 0,0 UV-I 0 W/m 9,1 C 15,4 C 0,0 km/h (0 Bft) 96 %
20.09.2020 23:16 15,5 C 65 % 1015,3 hPa 0,0 l/m 0 min 0 min 0,000 mm 0,0 UV-I 0 W/m 8,9 C 15,5 C 0,0 km/h (0 Bft) 96 %
20.09.2020 23:14 15,6 C 65 % 1015,4 hPa 0,0 l/m 0 min 0 min 0,000 mm 0,0 UV-I 0 W/m 9,0 C 15,6 C 0,0 km/h (0 Bft) 98 %
20.09.2020 23:12 15,7 C 65 % 1015,4 hPa 0,0 l/m 0 min 0 min 0,000 mm 0,0 UV-I 0 W/m 9,1 C 15,7 C 0,0 km/h (0 Bft) 96 %
20.09.2020 23:10 15,8 C 65 % 1015,3 hPa 0,0 l/m 0 min 0 min 0,000 mm 0,0 UV-I 0 W/m 9,2 C 15,8 C 0,0 km/h (0 Bft) 94 %
20.09.2020 23:08 15,8 C 65 % 1015,3 hPa 0,0 l/m 0 min 0 min 0,000 mm 0,0 UV-I 0 W/m 9,2 C 15,8 C 0,0 km/h (0 Bft) 98 %
20.09.2020 23:06 15,9 C 65 % 1015,3 hPa 0,0 l/m 0 min 0 min 0,000 mm 0,0 UV-I 0 W/m 9,3 C 15,9 C 0,0 km/h (0 Bft) 98 %
20.09.2020 23:04 16,0 C 65 % 1015,3 hPa 0,0 l/m 0 min 0 min 0,025 mm 0,0 UV-I 0 W/m 9,4 C 16,0 C 0,0 km/h (0 Bft) 98 %
20.09.2020 23:00 16,1 C 64 % 1015,3 hPa 0,0 l/m 0 min 0 min 0,000 mm 0,0 UV-I 0 W/m 9,3 C 16,1 C 1,6 km/h (1 Bft) 98 %
20.09.2020 22:58 16,2 C 64 % 1015,4 hPa 0,0 l/m 0 min 0 min 0,000 mm 0,0 UV-I 0 W/m 9,4 C 16,2 C 0,0 km/h (0 Bft) 98 %
20.09.2020 22:56 16,2 C 64 % 1015,4 hPa 0,0 l/m 0 min 0 min 0,000 mm 0,0 UV-I 0 W/m 9,4 C 16,2 C 0,0 km/h (0 Bft) 98 %
20.09.2020 22:54 16,3 C 63 % 1015,4 hPa 0,0 l/m 0 min 0 min 0,000 mm 0,0 UV-I 0 W/m 9,2 C 16,3 C 0,0 km/h (0 Bft) 98 %
20.09.2020 22:52 16,3 C 63 % 1015,5 hPa 0,0 l/m 0 min 0 min 0,000 mm 0,0 UV-I 0 W/m 9,2 C 16,3 C 0,0 km/h (0 Bft) 98 %
20.09.2020 22:50 16,4 C 62 % 1015,4 hPa 0,0 l/m 0 min 0 min 0,000 mm 0,0 UV-I 0 W/m 9,1 C 16,4 C 0,0 km/h (0 Bft) 96 %
20.09.2020 22:48 16,6 C 62 % 1015,5 hPa 0,0 l/m 0 min 0 min 0,000 mm 0,0 UV-I 0 W/m 9,3 C 16,6 C 0,0 km/h (0 Bft) 98 %
20.09.2020 22:46 16,6 C 62 % 1015,4 hPa 0,0 l/m 0 min 0 min 0,000 mm 0,0 UV-I 0 W/m 9,3 C 16,6 C 0,0 km/h (0 Bft) 98 %
20.09.2020 22:44 16,7 C 61 % 1015,4 hPa 0,0 l/m 0 min 0 min 0,000 mm 0,0 UV-I 0 W/m 9,1 C 16,7 C 0,0 km/h (0 Bft) 98 %
20.09.2020 22:42 16,8 C 61 % 1015,4 hPa 0,0 l/m 0 min 0 min 0,000 mm 0,0 UV-I 0 W/m 9,2 C 16,8 C 0,0 km/h (0 Bft) 96 %
20.09.2020 22:40 16,9 C 61 % 1015,4 hPa 0,0 l/m 0 min 0 min 0,000 mm 0,0 UV-I 0 W/m 9,3 C 16,9 C 0,0 km/h (0 Bft) 98 %
20.09.2020 22:38 17,0 C 60 % 1015,4 hPa 0,0 l/m 0 min 0 min 0,000 mm 0,0 UV-I 0 W/m 9,2 C 17,0 C 0,0 km/h (0 Bft) 98 %
20.09.2020 22:36 17,2 C 60 % 1015,4 hPa 0,0 l/m 0 min 0 min 0,000 mm 0,0 UV-I 0 W/m 9,4 C 17,2 C 0,0 km/h (0 Bft) 98 %
20.09.2020 22:34 17,3 C 60 % 1015,4 hPa 0,0 l/m 0 min 0 min 0,000 mm 0,0 UV-I 0 W/m 9,5 C 17,3 C 0,0 km/h (0 Bft) 98 %
20.09.2020 22:32 17,4 C 60 % 1015,4 hPa 0,0 l/m 0 min 0 min 0,000 mm 0,0 UV-I 0 W/m 9,6 C 17,4 C 0,0 km/h (0 Bft) 98 %
20.09.2020 22:30 17,4 C 60 % 1015,3 hPa 0,0 l/m 0 min 0 min 0,000 mm 0,0 UV-I 0 W/m 9,6 C 17,4 C 0,0 km/h (0 Bft) 100 %
20.09.2020 22:28 17,6 C 60 % 1015,3 hPa 0,0 l/m 0 min 0 min 0,000 mm 0,0 UV-I 0 W/m 9,7 C 17,6 C 0,0 km/h (0 Bft) 100 %
20.09.2020 22:26 17,6 C 59 % 1015,4 hPa 0,0 l/m 0 min 0 min 0,000 mm 0,0 UV-I 0 W/m 9,5 C 17,6 C 0,0 km/h (0 Bft) 100 %
20.09.2020 22:24 17,7 C 59 % 1015,3 hPa 0,0 l/m 0 min 0 min 0,000 mm 0,0 UV-I 0 W/m 9,6 C 17,7 C 0,0 km/h (0 Bft) 100 %
20.09.2020 22:22 17,7 C 58 % 1015,3 hPa 0,0 l/m 0 min 0 min 0,000 mm 0,0 UV-I 0 W/m 9,3 C 17,7 C 0,0 km/h (0 Bft) 98 %
20.09.2020 22:20 17,7 C 58 % 1015,3 hPa 0,0 l/m 0 min 0 min 0,000 mm 0,0 UV-I 0 W/m 9,3 C 17,7 C 0,0 km/h (0 Bft) 96 %
20.09.2020 22:18 17,8 C 58 % 1015,3 hPa 0,0 l/m 0 min 0 min 0,000 mm 0,0 UV-I 0 W/m 9,4 C 17,8 C 0,0 km/h (0 Bft) 98 %
20.09.2020 22:16 17,8 C 58 % 1015,3 hPa 0,0 l/m 0 min 0 min 0,000 mm 0,0 UV-I 0 W/m 9,4 C 17,8 C 1,6 km/h (1 Bft) 98 %
20.09.2020 22:14 17,9 C 57 % 1015,3 hPa 0,0 l/m 0 min 0 min 0,000 mm 0,0 UV-I 0 W/m 9,3 C 17,9 C 1,6 km/h (1 Bft) 98 %
20.09.2020 22:12 17,9 C 57 % 1015,3 hPa 0,0 l/m 0 min 0 min 0,000 mm 0,0 UV-I 0 W/m 9,3 C 17,9 C 1,6 km/h (1 Bft) 98 %
20.09.2020 22:10 17,9 C 57 % 1015,3 hPa 0,0 l/m 0 min 0 min 0,000 mm 0,0 UV-I 0 W/m 9,3 C 17,9 C 1,6 km/h (1 Bft) 98 %
20.09.2020 22:08 18,0 C 57 % 1015,3 hPa 0,0 l/m 0 min 0 min 0,000 mm 0,0 UV-I 0 W/m 9,4 C 18,0 C 0,0 km/h (0 Bft) 98 %
20.09.2020 22:06 18,1 C 57 % 1015,3 hPa 0,0 l/m 0 min 0 min 0,000 mm 0,0 UV-I 0 W/m 9,4 C 18,1 C 1,6 km/h (1 Bft) 98 %
20.09.2020 22:04 18,1 C 57 % 1015,3 hPa 0,0 l/m 0 min 0 min 0,025 mm 0,0 UV-I 0 W/m 9,4 C 18,1 C 4,8 km/h (1 Bft) 97 %
20.09.2020 22:00 18,2 C 56 % 1015,3 hPa 0,0 l/m 0 min 0 min 0,000 mm 0,0 UV-I 0 W/m 9,3 C 18,2 C 0,0 km/h (0 Bft) 96 %
20.09.2020 21:58 18,2 C 56 % 1015,2 hPa 0,0 l/m 0 min 0 min 0,000 mm 0,0 UV-I 0 W/m 9,3 C 18,2 C 0,0 km/h (0 Bft) 94 %
20.09.2020 21:56 18,2 C 56 % 1015,3 hPa 0,0 l/m 0 min 0 min 0,000 mm 0,0 UV-I 0 W/m 9,3 C 18,2 C 0,0 km/h (0 Bft) 96 %
20.09.2020 21:54 18,3 C 56 % 1015,3 hPa 0,0 l/m 0 min 0 min 0,000 mm 0,0 UV-I 0 W/m 9,4 C 18,3 C 1,6 km/h (1 Bft) 94 %
20.09.2020 21:52 18,3 C 56 % 1015,2 hPa 0,0 l/m 0 min 0 min 0,000 mm 0,0 UV-I 0 W/m 9,4 C 18,3 C 0,0 km/h (0 Bft) 98 %
20.09.2020 21:50 18,3 C 55 % 1015,3 hPa 0,0 l/m 0 min 0 min 0,000 mm 0,0 UV-I 0 W/m 9,1 C 18,3 C 3,2 km/h (1 Bft) 94 %
20.09.2020 21:48 18,3 C 55 % 1015,2 hPa 0,0 l/m 0 min 0 min 0,000 mm 0,0 UV-I 0 W/m 9,1 C 18,3 C 1,6 km/h (1 Bft) 98 %
20.09.2020 21:46 18,4 C 55 % 1015,2 hPa 0,0 l/m 0 min 0 min 0,000 mm 0,0 UV-I 0 W/m 9,2 C 18,4 C 0,0 km/h (0 Bft) 96 %
20.09.2020 21:44 18,4 C 55 % 1015,3 hPa 0,0 l/m 0 min 0 min 0,000 mm 0,0 UV-I 0 W/m 9,2 C 18,4 C 0,0 km/h (0 Bft) 100 %
20.09.2020 21:42 18,4 C 55 % 1015,3 hPa 0,0 l/m 0 min 0 min 0,000 mm 0,0 UV-I 0 W/m 9,2 C 18,4 C 3,2 km/h (1 Bft) 100 %
20.09.2020 21:40 18,5 C 55 % 1015,2 hPa 0,0 l/m 0 min 0 min 0,000 mm 0,0 UV-I 0 W/m 9,3 C 18,5 C 0,0 km/h (0 Bft) 100 %
20.09.2020 21:38 18,5 C 54 % 1015,2 hPa 0,0 l/m 0 min 0 min 0,000 mm 0,0 UV-I 0 W/m 9,0 C 18,5 C 0,0 km/h (0 Bft) 100 %
20.09.2020 21:36 18,6 C 54 % 1015,2 hPa 0,0 l/m 0 min 0 min 0,000 mm 0,0 UV-I 0 W/m 9,1 C 18,6 C 0,0 km/h (0 Bft) 98 %
20.09.2020 21:34 18,6 C 54 % 1015,3 hPa 0,0 l/m 0 min 0 min 0,000 mm 0,0 UV-I 0 W/m 9,1 C 18,6 C 0,0 km/h (0 Bft) 100 %
20.09.2020 21:32 18,6 C 54 % 1015,2 hPa 0,0 l/m 0 min 0 min 0,000 mm 0,0 UV-I 0 W/m 9,1 C 18,6 C 0,0 km/h (0 Bft) 98 %
20.09.2020 21:30 18,7 C 54 % 1015,2 hPa 0,0 l/m 0 min 0 min 0,000 mm 0,0 UV-I 0 W/m 9,2 C 18,7 C 1,6 km/h (1 Bft) 100 %
20.09.2020 21:28 18,7 C 54 % 1015,2 hPa 0,0 l/m 0 min 0 min 0,000 mm 0,0 UV-I 0 W/m 9,2 C 18,7 C 1,6 km/h (1 Bft) 98 %
20.09.2020 21:26 18,7 C 54 % 1015,2 hPa 0,0 l/m 0 min 0 min 0,000 mm 0,0 UV-I 0 W/m 9,2 C 18,7 C 1,6 km/h (1 Bft) 98 %
20.09.2020 21:24 18,7 C 54 % 1015,2 hPa 0,0 l/m 0 min 0 min 0,000 mm 0,0 UV-I 0 W/m 9,2 C 18,7 C 6,4 km/h (2 Bft) 100 %
20.09.2020 21:22 18,8 C 53 % 1015,2 hPa 0,0 l/m 0 min 0 min 0,000 mm 0,0 UV-I 0 W/m 9,0 C 18,8 C 0,0 km/h (0 Bft) 96 %
20.09.2020 21:20 18,8 C 53 % 1015,1 hPa 0,0 l/m 0 min 0 min 0,000 mm 0,0 UV-I 0 W/m 9,0 C 18,8 C 0,0 km/h (0 Bft) 98 %
20.09.2020 21:18 18,8 C 53 % 1015,1 hPa 0,0 l/m 0 min 0 min 0,000 mm 0,0 UV-I 0 W/m 9,0 C 18,8 C 0,0 km/h (0 Bft) 98 %
20.09.2020 21:16 18,9 C 53 % 1015,1 hPa 0,0 l/m 0 min 0 min 0,000 mm 0,0 UV-I 0 W/m 9,1 C 18,9 C 1,6 km/h (1 Bft) 98 %
20.09.2020 21:14 18,9 C 53 % 1015,1 hPa 0,0 l/m 0 min 0 min 0,000 mm 0,0 UV-I 0 W/m 9,1 C 18,9 C 0,0 km/h (0 Bft) 98 %
20.09.2020 21:12 18,9 C 52 % 1015,1 hPa 0,0 l/m 0 min 0 min 0,000 mm 0,0 UV-I 0 W/m 8,8 C 18,9 C 0,0 km/h (0 Bft) 98 %
20.09.2020 21:10 19,0 C 52 % 1015,2 hPa 0,0 l/m 0 min 0 min 0,000 mm 0,0 UV-I 0 W/m 8,9 C 19,0 C 0,0 km/h (0 Bft) 100 %
20.09.2020 21:08 19,0 C 52 % 1015,1 hPa 0,0 l/m 0 min 0 min 0,000 mm 0,0 UV-I 0 W/m 8,9 C 19,0 C 0,0 km/h (0 Bft) 98 %
20.09.2020 21:06 19,1 C 52 % 1015,1 hPa 0,0 l/m 0 min 0 min 0,000 mm 0,0 UV-I 0 W/m 9,0 C 19,1 C 0,0 km/h (0 Bft) 98 %
20.09.2020 21:04 19,1 C 52 % 1015,1 hPa 0,0 l/m 0 min 0 min 0,026 mm 0,0 UV-I 0 W/m 9,0 C 19,1 C 1,6 km/h (1 Bft) 96 %
20.09.2020 21:00 19,1 C 52 % 1015,0 hPa 0,0 l/m 0 min 0 min 0,000 mm 0,0 UV-I 0 W/m 9,0 C 19,1 C 1,6 km/h (1 Bft) 96 %
_ Min-Zeit 07:16 16:08 19:00 - - - - - - 07:10 07:42 21:06 04:54
Minimum _ 9,5 C 41 % 1012,6 hPa - - - - - - 7,0 C 7,4 C 0,0 km/h (0 Bft) 89 %
_ Max-Zeit 16:08 07:16 23:36 21:00 08:08 21:00 14:04 13:24 13:12 15:28 16:08 07:40 21:10
Maximum _ 27,5 C 85 % 1015,6 hPa 0,0 l/m 2 min 0 min 0,406 mm 4,7 UV-I 631 W/m 14,1 C 27,5 C 17,7 km/h
SW (3 Bft)
100 %
Durchschnitt _ 18,0 C 63 % 1014,4 hPa #0,0 l/m #10:04 h #0 min. #2,946 mm 2,6 UV-I 364 W/m 10,2 C 17,9 C 1,5 km/h (1 Bft) 97 %